Wetterdaten: Donnerstag, 03.10.2013
Datum Zeit Temp. Aussen +5cm Feuchte Auss Luftdruck Regen Sonnenschein Regendauer UV Solar Windben
03.10.2013 00:00 10,8 C 9,4 C 65 % 1018,7 hPa 0,0 l/m 0 min 0 min 0,0 UV-I 0 W/m 18,0 km/h (3 Bft)
03.10.2013 00:02 10,8 C 9,4 C 65 % 1018,7 hPa 0,0 l/m 0 min 0 min 0,0 UV-I 0 W/m 23,2 km/h (4 Bft)
03.10.2013 00:06 10,8 C 9,4 C 65 % 1018,7 hPa 0,0 l/m 0 min 0 min 0,0 UV-I 0 W/m 25,7 km/h (4 Bft)
03.10.2013 00:08 10,8 C 9,4 C 65 % 1018,7 hPa 0,0 l/m 0 min 0 min 0,0 UV-I 0 W/m 10,3 km/h (2 Bft)
03.10.2013 00:10 10,8 C 9,4 C 66 % 1018,7 hPa 0,0 l/m 0 min 0 min 0,0 UV-I 0 W/m 10,3 km/h (2 Bft)
03.10.2013 00:12 10,7 C 8,9 C 66 % 1018,6 hPa 0,0 l/m 0 min 0 min 0,0 UV-I 0 W/m 18,0 km/h (3 Bft)
03.10.2013 00:14 10,7 C 8,9 C 66 % 1018,6 hPa 0,0 l/m 0 min 0 min 0,0 UV-I 0 W/m 23,2 km/h (4 Bft)
03.10.2013 00:16 10,7 C 8,9 C 66 % 1018,6 hPa 0,0 l/m 0 min 0 min 0,0 UV-I 0 W/m 12,9 km/h (3 Bft)
03.10.2013 00:18 10,7 C 8,9 C 66 % 1018,7 hPa 0,0 l/m 0 min 0 min 0,0 UV-I 0 W/m 23,2 km/h (4 Bft)
03.10.2013 00:20 10,6 C 8,9 C 66 % 1018,7 hPa 0,0 l/m 0 min 0 min 0,0 UV-I 0 W/m 23,2 km/h (4 Bft)
03.10.2013 00:22 10,6 C 8,9 C 66 % 1018,7 hPa 0,0 l/m 0 min 0 min 0,0 UV-I 0 W/m 20,6 km/h (4 Bft)
03.10.2013 00:24 10,6 C 8,9 C 66 % 1018,7 hPa 0,0 l/m 0 min 0 min 0,0 UV-I 0 W/m 18,0 km/h (3 Bft)
03.10.2013 00:26 10,6 C 8,9 C 66 % 1018,7 hPa 0,0 l/m 0 min 0 min 0,0 UV-I 0 W/m 20,6 km/h (4 Bft)
03.10.2013 00:28 10,6 C 8,9 C 66 % 1018,7 hPa 0,0 l/m 0 min 0 min 0,0 UV-I 0 W/m 12,9 km/h (3 Bft)
03.10.2013 00:30 10,6 C 8,9 C 66 % 1018,7 hPa 0,0 l/m 0 min 0 min 0,0 UV-I 0 W/m 15,4 km/h (3 Bft)
03.10.2013 00:32 10,6 C 8,9 C 66 % 1018,7 hPa 0,0 l/m 0 min 0 min 0,0 UV-I 0 W/m 18,0 km/h (3 Bft)
03.10.2013 00:34 10,5 C 8,9 C 66 % 1018,7 hPa 0,0 l/m 0 min 0 min 0,0 UV-I 0 W/m 15,4 km/h (3 Bft)
03.10.2013 00:36 10,4 C 8,9 C 66 % 1018,7 hPa 0,0 l/m 0 min 0 min 0,0 UV-I 0 W/m 20,6 km/h (4 Bft)
03.10.2013 00:38 10,4 C 8,9 C 66 % 1018,7 hPa 0,0 l/m 0 min 0 min 0,0 UV-I 0 W/m 12,9 km/h (3 Bft)
03.10.2013 00:40 10,4 C 8,9 C 66 % 1018,7 hPa 0,0 l/m 0 min 0 min 0,0 UV-I 0 W/m 15,4 km/h (3 Bft)
03.10.2013 00:42 10,4 C 8,9 C 66 % 1018,7 hPa 0,0 l/m 0 min 0 min 0,0 UV-I 0 W/m 30,9 km/h (5 Bft)
03.10.2013 00:44 10,4 C 8,9 C 66 % 1018,7 hPa 0,0 l/m 0 min 0 min 0,0 UV-I 0 W/m 10,3 km/h (2 Bft)
03.10.2013 00:46 10,4 C 8,9 C 66 % 1018,7 hPa 0,0 l/m 0 min 0 min 0,0 UV-I 0 W/m 18,0 km/h (3 Bft)
03.10.2013 00:48 10,4 C 8,9 C 66 % 1018,7 hPa 0,0 l/m 0 min 0 min 0,0 UV-I 0 W/m 12,9 km/h (3 Bft)
03.10.2013 00:50 10,3 C 8,9 C 66 % 1018,7 hPa 0,0 l/m 0 min 0 min 0,0 UV-I 0 W/m 12,9 km/h (3 Bft)
03.10.2013 00:52 10,3 C 8,9 C 66 % 1018,8 hPa 0,0 l/m 0 min 0 min 0,0 UV-I 0 W/m 28,3 km/h (4 Bft)
03.10.2013 00:54 10,3 C 8,9 C 66 % 1018,8 hPa 0,0 l/m 0 min 0 min 0,0 UV-I 0 W/m 12,9 km/h (3 Bft)
03.10.2013 00:56 10,3 C 8,9 C 66 % 1018,7 hPa 0,0 l/m 0 min 0 min 0,0 UV-I 0 W/m 12,9 km/h (3 Bft)
03.10.2013 00:58 10,3 C 8,9 C 66 % 1018,7 hPa 0,0 l/m 0 min 0 min 0,0 UV-I 0 W/m 15,4 km/h (3 Bft)
03.10.2013 01:00 10,3 C 8,9 C 66 % 1018,6 hPa 0,0 l/m 0 min 0 min 0,0 UV-I 0 W/m 10,3 km/h (2 Bft)
03.10.2013 01:02 10,2 C 8,9 C 66 % 1018,6 hPa 0,0 l/m 0 min 0 min 0,0 UV-I 0 W/m 10,3 km/h (2 Bft)
03.10.2013 01:06 10,2 C 8,3 C 67 % 1018,6 hPa 0,0 l/m 0 min 0 min 0,0 UV-I 0 W/m 18,0 km/h (3 Bft)
03.10.2013 01:08 10,1 C 8,3 C 67 % 1018,6 hPa 0,0 l/m 0 min 0 min 0,0 UV-I 0 W/m 18,0 km/h (3 Bft)
03.10.2013 01:10 10,1 C 8,3 C 67 % 1018,7 hPa 0,0 l/m 0 min 0 min 0,0 UV-I 0 W/m 12,9 km/h (3 Bft)
03.10.2013 01:12 10,1 C 8,3 C 67 % 1018,7 hPa 0,0 l/m 0 min 0 min 0,0 UV-I 0 W/m 12,9 km/h (3 Bft)
03.10.2013 01:14 10,1 C 8,9 C 66 % 1018,6 hPa 0,0 l/m 0 min 0 min 0,0 UV-I 0 W/m 18,0 km/h (3 Bft)
03.10.2013 01:16 10,1 C 8,3 C 66 % 1018,7 hPa 0,0 l/m 0 min 0 min 0,0 UV-I 0 W/m 20,6 km/h (4 Bft)
03.10.2013 01:18 10,1 C 8,3 C 67 % 1018,7 hPa 0,0 l/m 0 min 0 min 0,0 UV-I 0 W/m 15,4 km/h (3 Bft)
03.10.2013 01:20 10,1 C 8,3 C 66 % 1018,6 hPa 0,0 l/m 0 min 0 min 0,0 UV-I 0 W/m 25,7 km/h (4 Bft)
03.10.2013 01:22 10,1 C 8,3 C 66 % 1018,7 hPa 0,0 l/m 0 min 0 min 0,0 UV-I 0 W/m 18,0 km/h (3 Bft)
03.10.2013 01:24 10,1 C 8,3 C 66 % 1018,7 hPa 0,0 l/m 0 min 0 min 0,0 UV-I 0 W/m 15,4 km/h (3 Bft)
03.10.2013 01:26 10,1 C 8,3 C 67 % 1018,8 hPa 0,0 l/m 0 min 0 min 0,0 UV-I 0 W/m 18,0 km/h (3 Bft)
03.10.2013 01:28 10,1 C 8,3 C 66 % 1018,8 hPa 0,0 l/m 0 min 0 min 0,0 UV-I 0 W/m 12,9 km/h (3 Bft)
03.10.2013 01:30 10,0 C 8,3 C 67 % 1018,7 hPa 0,0 l/m 0 min 0 min 0,0 UV-I 0 W/m 15,4 km/h (3 Bft)
03.10.2013 01:32 10,0 C 8,3 C 67 % 1018,8 hPa 0,0 l/m 0 min 0 min 0,0 UV-I 0 W/m 18,0 km/h (3 Bft)
03.10.2013 01:34 9,9 C 8,3 C 67 % 1018,8 hPa 0,0 l/m 0 min 0 min 0,0 UV-I 0 W/m 15,4 km/h (3 Bft)
03.10.2013 01:36 9,9 C 8,3 C 67 % 1018,7 hPa 0,0 l/m 0 min 0 min 0,0 UV-I 0 W/m 10,3 km/h (2 Bft)
03.10.2013 01:38 9,9 C 8,3 C 67 % 1018,7 hPa 0,0 l/m 0 min 0 min 0,0 UV-I 0 W/m 5,1 km/h (1 Bft)
03.10.2013 01:40 9,9 C 8,3 C 67 % 1018,7 hPa 0,0 l/m 0 min 0 min 0,0 UV-I 0 W/m 7,7 km/h (2 Bft)
03.10.2013 01:42 9,8 C 8,3 C 67 % 1018,7 hPa 0,0 l/m 0 min 0 min 0,0 UV-I 0 W/m 15,4 km/h (3 Bft)
03.10.2013 01:44 9,8 C 8,3 C 67 % 1018,7 hPa 0,0 l/m 0 min 0 min 0,0 UV-I 0 W/m 12,9 km/h (3 Bft)
03.10.2013 01:46 9,8 C 8,3 C 67 % 1018,7 hPa 0,0 l/m 0 min 0 min 0,0 UV-I 0 W/m 15,4 km/h (3 Bft)
03.10.2013 01:48 9,8 C 8,3 C 67 % 1018,7 hPa 0,0 l/m 0 min 0 min 0,0 UV-I 0 W/m 18,0 km/h (3 Bft)
03.10.2013 01:50 9,8 C 8,3 C 67 % 1018,7 hPa 0,0 l/m 0 min 0 min 0,0 UV-I 0 W/m 25,7 km/h (4 Bft)
03.10.2013 01:52 9,8 C 8,3 C 67 % 1018,7 hPa 0,0 l/m 0 min 0 min 0,0 UV-I 0 W/m 15,4 km/h (3 Bft)
03.10.2013 01:54 9,8 C 8,3 C 67 % 1018,7 hPa 0,0 l/m 0 min 0 min 0,0 UV-I 0 W/m 28,3 km/h (4 Bft)
03.10.2013 01:56 9,8 C 8,3 C 67 % 1018,7 hPa 0,0 l/m 0 min 0 min 0,0 UV-I 0 W/m 15,4 km/h (3 Bft)
03.10.2013 01:58 9,8 C 8,3 C 67 % 1018,8 hPa 0,0 l/m 0 min 0 min 0,0 UV-I 0 W/m 18,0 km/h (3 Bft)
03.10.2013 02:00 9,8 C 8,3 C 67 % 1018,8 hPa 0,0 l/m 0 min 0 min 0,0 UV-I 0 W/m 23,2 km/h (4 Bft)
03.10.2013 02:02 9,8 C 8,3 C 67 % 1018,8 hPa 0,0 l/m 0 min 0 min 0,0 UV-I 0 W/m 12,9 km/h (3 Bft)
03.10.2013 02:06 9,8 C 8,3 C 67 % 1018,7 hPa 0,0 l/m 0 min 0 min 0,0 UV-I 0 W/m 15,4 km/h (3 Bft)
03.10.2013 02:08 9,8 C 8,3 C 67 % 1018,7 hPa 0,0 l/m 0 min 0 min 0,0 UV-I 0 W/m 18,0 km/h (3 Bft)
03.10.2013 02:10 9,7 C 8,3 C 67 % 1018,8 hPa 0,0 l/m 0 min 0 min 0,0 UV-I 0 W/m 20,6 km/h (4 Bft)
03.10.2013 02:12 9,7 C 8,3 C 67 % 1018,7 hPa 0,0 l/m 0 min 0 min 0,0 UV-I 0 W/m 28,3 km/h (4 Bft)
03.10.2013 02:14 9,7 C 8,3 C 68 % 1018,7 hPa 0,0 l/m 0 min 0 min 0,0 UV-I 0 W/m 7,7 km/h (2 Bft)
03.10.2013 02:16 9,7 C 8,3 C 67 % 1018,7 hPa 0,0 l/m 0 min 0 min 0,0 UV-I 0 W/m 12,9 km/h (3 Bft)
03.10.2013 02:18 9,7 C 7,8 C 68 % 1018,7 hPa 0,0 l/m 0 min 0 min 0,0 UV-I 0 W/m 18,0 km/h (3 Bft)
03.10.2013 02:20 9,6 C 7,8 C 68 % 1018,7 hPa 0,0 l/m 0 min 0 min 0,0 UV-I 0 W/m 15,4 km/h (3 Bft)
03.10.2013 02:22 9,6 C 7,8 C 68 % 1018,7 hPa 0,0 l/m 0 min 0 min 0,0 UV-I 0 W/m 15,4 km/h (3 Bft)
03.10.2013 02:24 9,6 C 7,8 C 68 % 1018,7 hPa 0,0 l/m 0 min 0 min 0,0 UV-I 0 W/m 18,0 km/h (3 Bft)
03.10.2013 02:26 9,6 C 7,8 C 68 % 1018,7 hPa 0,0 l/m 0 min 0 min 0,0 UV-I 0 W/m 15,4 km/h (3 Bft)
03.10.2013 02:28 9,6 C 7,8 C 68 % 1018,7 hPa 0,0 l/m 0 min 0 min 0,0 UV-I 0 W/m 7,7 km/h (2 Bft)
03.10.2013 02:30 9,6 C 7,8 C 68 % 1018,7 hPa 0,0 l/m 0 min 0 min 0,0 UV-I 0 W/m 23,2 km/h (4 Bft)
03.10.2013 02:32 9,6 C 8,3 C 68 % 1018,6 hPa 0,0 l/m 0 min 0 min 0,0 UV-I 0 W/m 20,6 km/h (4 Bft)
03.10.2013 02:34 9,6 C 8,3 C 68 % 1018,6 hPa 0,0 l/m 0 min 0 min 0,0 UV-I 0 W/m 20,6 km/h (4 Bft)
03.10.2013 02:36 9,6 C 8,3 C 68 % 1018,6 hPa 0,0 l/m 0 min 0 min 0,0 UV-I 0 W/m 18,0 km/h (3 Bft)
03.10.2013 02:38 9,6 C 8,3 C 67 % 1018,6 hPa 0,0 l/m 0 min 0 min 0,0 UV-I 0 W/m 7,7 km/h (2 Bft)
03.10.2013 02:40 9,6 C 7,8 C 68 % 1018,6 hPa 0,0 l/m 0 min 0 min 0,0 UV-I 0 W/m 20,6 km/h (4 Bft)
03.10.2013 02:42 9,7 C 8,3 C 67 % 1018,6 hPa 0,0 l/m 0 min 0 min 0,0 UV-I 0 W/m 25,7 km/h (4 Bft)
03.10.2013 02:44 9,7 C 7,8 C 67 % 1018,5 hPa 0,0 l/m 0 min 0 min 0,0 UV-I 0 W/m 10,3 km/h (2 Bft)
03.10.2013 02:46 9,7 C 7,8 C 67 % 1018,5 hPa 0,0 l/m 0 min 0 min 0,0 UV-I 0 W/m 18,0 km/h (3 Bft)
03.10.2013 02:48 9,7 C 7,8 C 67 % 1018,5 hPa 0,0 l/m 0 min 0 min 0,0 UV-I 0 W/m 18,0 km/h (3 Bft)
03.10.2013 02:50 9,7 C 7,8 C 67 % 1018,5 hPa 0,0 l/m 0 min 0 min 0,0 UV-I 0 W/m 10,3 km/h (2 Bft)
03.10.2013 02:52 9,6 C 7,8 C 67 % 1018,4 hPa 0,0 l/m 0 min 0 min 0,0 UV-I 0 W/m 12,9 km/h (3 Bft)
03.10.2013 02:54 9,6 C 7,8 C 67 % 1018,5 hPa 0,0 l/m 0 min 0 min 0,0 UV-I 0 W/m 20,6 km/h (4 Bft)
03.10.2013 02:56 9,6 C 7,8 C 67 % 1018,5 hPa 0,0 l/m 0 min 0 min 0,0 UV-I 0 W/m 20,6 km/h (4 Bft)
03.10.2013 02:58 9,6 C 7,8 C 67 % 1018,5 hPa 0,0 l/m 0 min 0 min 0,0 UV-I 0 W/m 20,6 km/h (4 Bft)
03.10.2013 03:00 9,6 C 7,8 C 67 % 1018,4 hPa 0,0 l/m 0 min 0 min 0,0 UV-I 0 W/m 20,6 km/h (4 Bft)
03.10.2013 03:02 9,6 C 7,8 C 67 % 1018,5 hPa 0,0 l/m 0 min 0 min 0,0 UV-I 0 W/m 28,3 km/h (4 Bft)
03.10.2013 03:06 9,6 C 8,3 C 67 % 1018,4 hPa 0,0 l/m 0 min 0 min 0,0 UV-I 0 W/m 23,2 km/h (4 Bft)
03.10.2013 03:08 9,6 C 8,3 C 67 % 1018,4 hPa 0,0 l/m 0 min 0 min 0,0 UV-I 0 W/m 20,6 km/h (4 Bft)
03.10.2013 03:10 9,6 C 7,8 C 67 % 1018,3 hPa 0,0 l/m 0 min 0 min 0,0 UV-I 0 W/m 15,4 km/h (3 Bft)
03.10.2013 03:12 9,6 C 7,8 C 67 % 1018,5 hPa 0,0 l/m 0 min 0 min 0,0 UV-I 0 W/m 25,7 km/h (4 Bft)
03.10.2013 03:14 9,5 C 7,8 C 67 % 1018,4 hPa 0,0 l/m 0 min 0 min 0,0 UV-I 0 W/m 28,3 km/h (4 Bft)
03.10.2013 03:16 9,5 C 7,8 C 67 % 1018,4 hPa 0,0 l/m 0 min 0 min 0,0 UV-I 0 W/m 30,9 km/h (5 Bft)
03.10.2013 03:18 9,4 C 7,8 C 67 % 1018,4 hPa 0,0 l/m 0 min 0 min 0,0 UV-I 0 W/m 18,0 km/h (3 Bft)
03.10.2013 03:20 9,4 C 7,8 C 68 % 1018,3 hPa 0,0 l/m 0 min 0 min 0,0 UV-I 0 W/m 25,7 km/h (4 Bft)
03.10.2013 03:22 9,4 C 7,8 C 68 % 1018,3 hPa 0,0 l/m 0 min 0 min 0,0 UV-I 0 W/m 20,6 km/h (4 Bft)
03.10.2013 03:24 9,4 C 7,8 C 67 % 1018,3 hPa 0,0 l/m 0 min 0 min 0,0 UV-I 0 W/m 25,7 km/h (4 Bft)
03.10.2013 03:26 9,4 C 7,8 C 68 % 1018,3 hPa 0,0 l/m 0 min 0 min 0,0 UV-I 0 W/m 15,4 km/h (3 Bft)
03.10.2013 03:28 9,4 C 7,8 C 67 % 1018,3 hPa 0,0 l/m 0 min 0 min 0,0 UV-I 0 W/m 18,0 km/h (3 Bft)
03.10.2013 03:30 9,4 C 7,8 C 67 % 1018,3 hPa 0,0 l/m 0 min 0 min 0,0 UV-I 0 W/m 25,7 km/h (4 Bft)
03.10.2013 03:32 9,4 C 7,8 C 67 % 1018,3 hPa 0,0 l/m 0 min 0 min 0,0 UV-I 0 W/m 25,7 km/h (4 Bft)
03.10.2013 03:34 9,4 C 7,8 C 67 % 1018,3 hPa 0,0 l/m 0 min 0 min 0,0 UV-I 0 W/m 18,0 km/h (3 Bft)
03.10.2013 03:36 9,4 C 7,8 C 68 % 1018,3 hPa 0,0 l/m 0 min 0 min 0,0 UV-I 0 W/m 20,6 km/h (4 Bft)
03.10.2013 03:38 9,3 C 7,8 C 68 % 1018,3 hPa 0,0 l/m 0 min 0 min 0,0 UV-I 0 W/m 28,3 km/h (4 Bft)
03.10.2013 03:40 9,3 C 7,8 C 68 % 1018,3 hPa 0,0 l/m 0 min 0 min 0,0 UV-I 0 W/m 23,2 km/h (4 Bft)
03.10.2013 03:42 9,3 C 7,8 C 68 % 1018,3 hPa 0,0 l/m 0 min 0 min 0,0 UV-I 0 W/m 23,2 km/h (4 Bft)
03.10.2013 03:44 9,3 C 7,8 C 68 % 1018,3 hPa 0,0 l/m 0 min 0 min 0,0 UV-I 0 W/m 23,2 km/h (4 Bft)
03.10.2013 03:46 9,3 C 7,8 C 68 % 1018,2 hPa 0,0 l/m 0 min 0 min 0,0 UV-I 0 W/m 18,0 km/h (3 Bft)
03.10.2013 03:48 9,3 C 7,8 C 68 % 1018,2 hPa 0,0 l/m 0 min 0 min 0,0 UV-I 0 W/m 15,4 km/h (3 Bft)
03.10.2013 03:50 9,2 C 7,8 C 68 % 1018,1 hPa 0,0 l/m 0 min 0 min 0,0 UV-I 0 W/m 25,7 km/h (4 Bft)
03.10.2013 03:52 9,2 C 7,8 C 68 % 1018,1 hPa 0,0 l/m 0 min 0 min 0,0 UV-I 0 W/m 33,5 km/h (5 Bft)
03.10.2013 03:54 9,2 C 7,8 C 68 % 1018,0 hPa 0,0 l/m 0 min 0 min 0,0 UV-I 0 W/m 23,2 km/h (4 Bft)
03.10.2013 03:56 9,2 C 7,8 C 68 % 1018,0 hPa 0,0 l/m 0 min 0 min 0,0 UV-I 0 W/m 28,3 km/h (4 Bft)
03.10.2013 03:58 9,2 C 7,8 C 68 % 1017,9 hPa 0,0 l/m 0 min 0 min 0,0 UV-I 0 W/m 30,9 km/h (5 Bft)
03.10.2013 04:00 9,2 C 7,8 C 68 % 1017,9 hPa 0,0 l/m 0 min 0 min 0,0 UV-I 0 W/m 20,6 km/h (4 Bft)
03.10.2013 04:02 9,2 C 7,8 C 68 % 1017,9 hPa 0,0 l/m 0 min 0 min 0,0 UV-I 0 W/m 33,5 km/h (5 Bft)
03.10.2013 04:06 9,2 C 7,8 C 68 % 1017,9 hPa 0,0 l/m 0 min 0 min 0,0 UV-I 0 W/m 23,2 km/h (4 Bft)
03.10.2013 04:08 9,2 C 7,8 C 68 % 1018,0 hPa 0,0 l/m 0 min 0 min 0,0 UV-I 0 W/m 20,6 km/h (4 Bft)
03.10.2013 04:10 9,1 C 7,8 C 68 % 1018,1 hPa 0,0 l/m 0 min 0 min 0,0 UV-I 0 W/m 28,3 km/h (4 Bft)
03.10.2013 04:12 9,1 C 7,8 C 68 % 1018,0 hPa 0,0 l/m 0 min 0 min 0,0 UV-I 0 W/m 20,6 km/h (4 Bft)
03.10.2013 04:14 9,2 C 7,8 C 68 % 1017,9 hPa 0,0 l/m 0 min 0 min 0,0 UV-I 0 W/m 20,6 km/h (4 Bft)
03.10.2013 04:16 9,2 C 7,8 C 68 % 1017,9 hPa 0,0 l/m 0 min 0 min 0,0 UV-I 0 W/m 23,2 km/h (4 Bft)
03.10.2013 04:18 9,1 C 7,8 C 68 % 1018,0 hPa 0,0 l/m 0 min 0 min 0,0 UV-I 0 W/m 20,6 km/h (4 Bft)
03.10.2013 04:20 9,1 C 7,8 C 68 % 1017,9 hPa 0,0 l/m 0 min 0 min 0,0 UV-I 0 W/m 20,6 km/h (4 Bft)
03.10.2013 04:22 9,1 C 7,8 C 68 % 1017,8 hPa 0,0 l/m 0 min 0 min 0,0 UV-I 0 W/m 25,7 km/h (4 Bft)
03.10.2013 04:24 9,1 C 7,8 C 68 % 1017,9 hPa 0,0 l/m 0 min 0 min 0,0 UV-I 0 W/m 23,2 km/h (4 Bft)
03.10.2013 04:26 9,1 C 7,8 C 68 % 1017,8 hPa 0,0 l/m 0 min 0 min 0,0 UV-I 0 W/m 18,0 km/h (3 Bft)
03.10.2013 04:28 9,1 C 7,8 C 68 % 1017,8 hPa 0,0 l/m 0 min 0 min 0,0 UV-I 0 W/m 20,6 km/h (4 Bft)
03.10.2013 04:30 9,1 C 7,8 C 68 % 1017,8 hPa 0,0 l/m 0 min 0 min 0,0 UV-I 0 W/m 20,6 km/h (4 Bft)
03.10.2013 04:32 9,1 C 7,8 C 68 % 1017,9 hPa 0,0 l/m 0 min 0 min 0,0 UV-I 0 W/m 20,6 km/h (4 Bft)
03.10.2013 04:34 9,1 C 7,8 C 68 % 1017,8 hPa 0,0 l/m 0 min 0 min 0,0 UV-I 0 W/m 23,2 km/h (4 Bft)
03.10.2013 04:36 9,1 C 7,8 C 68 % 1017,8 hPa 0,0 l/m 0 min 0 min 0,0 UV-I 0 W/m 28,3 km/h (4 Bft)
03.10.2013 04:38 9,1 C 7,8 C 68 % 1017,8 hPa 0,0 l/m 0 min 0 min 0,0 UV-I 0 W/m 30,9 km/h (5 Bft)
03.10.2013 04:40 9,1 C 7,8 C 68 % 1017,7 hPa 0,0 l/m 0 min 0 min 0,0 UV-I 0 W/m 25,7 km/h (4 Bft)
03.10.2013 04:42 9,1 C 7,8 C 68 % 1017,7 hPa 0,0 l/m 0 min 0 min 0,0 UV-I 0 W/m 25,7 km/h (4 Bft)
03.10.2013 04:44 9,1 C 7,8 C 68 % 1017,8 hPa 0,0 l/m 0 min 0 min 0,0 UV-I 0 W/m 25,7 km/h (4 Bft)
03.10.2013 04:46 9,1 C 7,8 C 68 % 1017,7 hPa 0,0 l/m 0 min 0 min 0,0 UV-I 0 W/m 28,3 km/h (4 Bft)
03.10.2013 04:48 9,1 C 7,8 C 68 % 1017,8 hPa 0,0 l/m 0 min 0 min 0,0 UV-I 0 W/m 28,3 km/h (4 Bft)
03.10.2013 04:50 9,1 C 7,8 C 68 % 1017,7 hPa 0,0 l/m 0 min 0 min 0,0 UV-I 0 W/m 20,6 km/h (4 Bft)
03.10.2013 04:52 9,1 C 7,8 C 68 % 1017,6 hPa 0,0 l/m 0 min 0 min 0,0 UV-I 0 W/m 28,3 km/h (4 Bft)
03.10.2013 04:54 9,1 C 7,8 C 68 % 1017,8 hPa 0,0 l/m 0 min 0 min 0,0 UV-I 0 W/m 25,7 km/h (4 Bft)
03.10.2013 04:56 9,1 C 7,8 C 68 % 1017,8 hPa 0,0 l/m 0 min 0 min 0,0 UV-I 0 W/m 30,9 km/h (5 Bft)
03.10.2013 04:58 9,1 C 7,8 C 68 % 1017,8 hPa 0,0 l/m 0 min 0 min 0,0 UV-I 0 W/m 20,6 km/h (4 Bft)
03.10.2013 05:00 9,1 C 7,8 C 68 % 1017,8 hPa 0,0 l/m 0 min 0 min 0,0 UV-I 0 W/m 20,6 km/h (4 Bft)
03.10.2013 05:02 9,1 C 7,8 C 68 % 1017,8 hPa 0,0 l/m 0 min 0 min 0,0 UV-I 0 W/m 20,6 km/h (4 Bft)
03.10.2013 05:06 9,1 C 7,8 C 68 % 1017,8 hPa 0,0 l/m 0 min 0 min 0,0 UV-I 0 W/m 36,0 km/h (5 Bft)
03.10.2013 05:08 9,1 C 7,8 C 68 % 1017,7 hPa 0,0 l/m 0 min 0 min 0,0 UV-I 0 W/m 18,0 km/h (3 Bft)
03.10.2013 05:10 9,1 C 7,8 C 68 % 1017,8 hPa 0,0 l/m 0 min 0 min 0,0 UV-I 0 W/m 20,6 km/h (4 Bft)
03.10.2013 05:12 9,1 C 7,8 C 68 % 1017,8 hPa 0,0 l/m 0 min 0 min 0,0 UV-I 0 W/m 28,3 km/h (4 Bft)
03.10.2013 05:14 9,1 C 7,8 C 68 % 1017,8 hPa 0,0 l/m 0 min 0 min 0,0 UV-I 0 W/m 25,7 km/h (4 Bft)
03.10.2013 05:16 9,1 C 7,8 C 68 % 1017,8 hPa 0,0 l/m 0 min 0 min 0,0 UV-I 0 W/m 20,6 km/h (4 Bft)
03.10.2013 05:18 9,1 C 7,8 C 68 % 1017,8 hPa 0,0 l/m 0 min 0 min 0,0 UV-I 0 W/m 23,2 km/h (4 Bft)
03.10.2013 05:20 9,0 C 7,8 C 68 % 1017,7 hPa 0,0 l/m 0 min 0 min 0,0 UV-I 0 W/m 25,7 km/h (4 Bft)
03.10.2013 05:22 9,0 C 7,8 C 68 % 1017,9 hPa 0,0 l/m 0 min 0 min 0,0 UV-I 0 W/m 28,3 km/h (4 Bft)
03.10.2013 05:24 9,0 C 7,8 C 68 % 1017,8 hPa 0,0 l/m 0 min 0 min 0,0 UV-I 0 W/m 20,6 km/h (4 Bft)
03.10.2013 05:26 9,0 C 7,8 C 68 % 1017,7 hPa 0,0 l/m 0 min 0 min 0,0 UV-I 0 W/m 23,2 km/h (4 Bft)
03.10.2013 05:28 8,9 C 7,8 C 68 % 1017,7 hPa 0,0 l/m 0 min 0 min 0,0 UV-I 0 W/m 28,3 km/h (4 Bft)
03.10.2013 05:30 8,9 C 7,8 C 68 % 1017,7 hPa 0,0 l/m 0 min 0 min 0,0 UV-I 0 W/m 33,5 km/h (5 Bft)
03.10.2013 05:32 8,9 C 7,8 C 68 % 1017,8 hPa 0,0 l/m 0 min 0 min 0,0 UV-I 0 W/m 38,6 km/h (5 Bft)
03.10.2013 05:34 8,9 C 7,8 C 68 % 1017,8 hPa 0,0 l/m 0 min 0 min 0,0 UV-I 0 W/m 30,9 km/h (5 Bft)
03.10.2013 05:36 8,9 C 7,8 C 68 % 1017,7 hPa 0,0 l/m 0 min 0 min 0,0 UV-I 0 W/m 20,6 km/h (4 Bft)
03.10.2013 05:38 8,9 C 7,2 C 68 % 1017,8 hPa 0,0 l/m 0 min 0 min 0,0 UV-I 0 W/m 20,6 km/h (4 Bft)
03.10.2013 05:40 8,9 C 7,8 C 68 % 1017,8 hPa 0,0 l/m 0 min 0 min 0,0 UV-I 0 W/m 30,9 km/h (5 Bft)
03.10.2013 05:42 8,9 C 7,2 C 69 % 1017,8 hPa 0,0 l/m 0 min 0 min 0,0 UV-I 0 W/m 15,4 km/h (3 Bft)
03.10.2013 05:44 8,9 C 7,2 C 69 % 1017,7 hPa 0,0 l/m 0 min 0 min 0,0 UV-I 0 W/m 25,7 km/h (4 Bft)
03.10.2013 05:46 8,8 C 7,2 C 68 % 1017,7 hPa 0,0 l/m 0 min 0 min 0,0 UV-I 0 W/m 20,6 km/h (4 Bft)
03.10.2013 05:48 8,8 C 7,2 C 68 % 1017,7 hPa 0,0 l/m 0 min 0 min 0,0 UV-I 0 W/m 28,3 km/h (4 Bft)
03.10.2013 05:50 8,8 C 7,2 C 68 % 1017,8 hPa 0,0 l/m 0 min 0 min 0,0 UV-I 0 W/m 25,7 km/h (4 Bft)
03.10.2013 05:52 8,8 C 7,2 C 68 % 1017,8 hPa 0,0 l/m 0 min 0 min 0,0 UV-I 0 W/m 20,6 km/h (4 Bft)
03.10.2013 05:54 8,8 C 7,2 C 68 % 1017,7 hPa 0,0 l/m 0 min 0 min 0,0 UV-I 0 W/m 25,7 km/h (4 Bft)
03.10.2013 05:56 8,8 C 7,2 C 68 % 1017,8 hPa 0,0 l/m 0 min 0 min 0,0 UV-I 0 W/m 23,2 km/h (4 Bft)
03.10.2013 05:58 8,8 C 7,2 C 68 % 1017,9 hPa 0,0 l/m 0 min 0 min 0,0 UV-I 0 W/m 30,9 km/h (5 Bft)
03.10.2013 06:00 8,8 C 7,2 C 69 % 1017,8 hPa 0,0 l/m 0 min 0 min 0,0 UV-I 0 W/m 15,4 km/h (3 Bft)
03.10.2013 06:02 8,7 C 7,2 C 69 % 1017,7 hPa 0,0 l/m 0 min 0 min 0,0 UV-I 0 W/m 18,0 km/h (3 Bft)
03.10.2013 06:06 8,7 C 7,2 C 69 % 1017,8 hPa 0,0 l/m 0 min 0 min 0,0 UV-I 0 W/m 28,3 km/h (4 Bft)
03.10.2013 06:08 8,7 C 7,2 C 69 % 1017,7 hPa 0,0 l/m 0 min 0 min 0,0 UV-I 0 W/m 23,2 km/h (4 Bft)
03.10.2013 06:10 8,7 C 7,2 C 69 % 1017,7 hPa 0,0 l/m 0 min 0 min 0,0 UV-I 0 W/m 25,7 km/h (4 Bft)
03.10.2013 06:12 8,7 C 7,2 C 69 % 1017,6 hPa 0,0 l/m 0 min 0 min 0,0 UV-I 0 W/m 23,2 km/h (4 Bft)
03.10.2013 06:14 8,7 C 7,2 C 69 % 1017,7 hPa 0,0 l/m 0 min 0 min 0,0 UV-I 0 W/m 15,4 km/h (3 Bft)
03.10.2013 06:16 8,6 C 7,2 C 69 % 1017,7 hPa 0,0 l/m 0 min 0 min 0,0 UV-I 0 W/m 33,5 km/h (5 Bft)
03.10.2013 06:18 8,6 C 7,2 C 69 % 1017,8 hPa 0,0 l/m 0 min 0 min 0,0 UV-I 0 W/m 23,2 km/h (4 Bft)
03.10.2013 06:20 8,6 C 7,2 C 69 % 1017,7 hPa 0,0 l/m 0 min 0 min 0,0 UV-I 0 W/m 20,6 km/h (4 Bft)
03.10.2013 06:22 8,6 C 7,2 C 69 % 1017,7 hPa 0,0 l/m 0 min 0 min 0,0 UV-I 0 W/m 18,0 km/h (3 Bft)
03.10.2013 06:24 8,6 C 7,2 C 69 % 1017,7 hPa 0,0 l/m 0 min 0 min 0,0 UV-I 0 W/m 23,2 km/h (4 Bft)
03.10.2013 06:26 8,5 C 7,2 C 69 % 1017,8 hPa 0,0 l/m 0 min 0 min 0,0 UV-I 0 W/m 23,2 km/h (4 Bft)
03.10.2013 06:28 8,5 C 7,2 C 69 % 1017,6 hPa 0,0 l/m 0 min 0 min 0,0 UV-I 0 W/m 18,0 km/h (3 Bft)
03.10.2013 06:30 8,5 C 7,2 C 69 % 1017,7 hPa 0,0 l/m 0 min 0 min 0,0 UV-I 0 W/m 18,0 km/h (3 Bft)
03.10.2013 06:32 8,5 C 7,2 C 69 % 1017,7 hPa 0,0 l/m 0 min 0 min 0,0 UV-I 0 W/m 28,3 km/h (4 Bft)
03.10.2013 06:34 8,5 C 7,2 C 69 % 1017,7 hPa 0,0 l/m 0 min 0 min 0,0 UV-I 0 W/m 20,6 km/h (4 Bft)
03.10.2013 06:36 8,5 C 7,2 C 69 % 1017,6 hPa 0,0 l/m 0 min 0 min 0,0 UV-I 0 W/m 30,9 km/h (5 Bft)
03.10.2013 06:38 8,5 C 7,2 C 69 % 1017,7 hPa 0,0 l/m 0 min 0 min 0,0 UV-I 0 W/m 23,2 km/h (4 Bft)
03.10.2013 06:40 8,5 C 7,2 C 69 % 1017,7 hPa 0,0 l/m 0 min 0 min 0,0 UV-I 0 W/m 18,0 km/h (3 Bft)
03.10.2013 06:42 8,4 C 7,2 C 69 % 1017,7 hPa 0,0 l/m 0 min 0 min 0,0 UV-I 0 W/m 12,9 km/h (3 Bft)
03.10.2013 06:44 8,4 C 7,2 C 69 % 1017,6 hPa 0,0 l/m 0 min 0 min 0,0 UV-I 0 W/m 30,9 km/h (5 Bft)
03.10.2013 06:46 8,4 C 7,2 C 69 % 1017,6 hPa 0,0 l/m 0 min 0 min 0,0 UV-I 0 W/m 20,6 km/h (4 Bft)
03.10.2013 06:48 8,4 C 7,2 C 69 % 1017,6 hPa 0,0 l/m 0 min 0 min 0,0 UV-I 0 W/m 20,6 km/h (4 Bft)
03.10.2013 06:50 8,4 C 7,2 C 69 % 1017,6 hPa 0,0 l/m 0 min 0 min 0,0 UV-I 0 W/m 28,3 km/h (4 Bft)
03.10.2013 06:52 8,4 C 7,2 C 69 % 1017,6 hPa 0,0 l/m 0 min 0 min 0,0 UV-I 0 W/m 25,7 km/h (4 Bft)
03.10.2013 06:54 8,3 C 7,2 C 69 % 1017,5 hPa 0,0 l/m 0 min 0 min 0,0 UV-I 0 W/m 15,4 km/h (3 Bft)
03.10.2013 06:56 8,4 C 7,2 C 69 % 1017,6 hPa 0,0 l/m 0 min 0 min 0,0 UV-I 0 W/m 18,0 km/h (3 Bft)
03.10.2013 06:58 8,3 C 7,2 C 69 % 1017,6 hPa 0,0 l/m 0 min 0 min 0,0 UV-I 0 W/m 12,9 km/h (3 Bft)
03.10.2013 07:00 8,3 C 6,7 C 69 % 1017,5 hPa 0,0 l/m 0 min 0 min 0,0 UV-I 0 W/m 25,7 km/h (4 Bft)
03.10.2013 07:02 8,3 C 6,7 C 69 % 1017,6 hPa 0,0 l/m 0 min 0 min 0,0 UV-I 0 W/m 23,2 km/h (4 Bft)
03.10.2013 07:06 8,3 C 7,2 C 69 % 1017,6 hPa 0,0 l/m 0 min 0 min 0,0 UV-I 0 W/m 25,7 km/h (4 Bft)
03.10.2013 07:08 8,3 C 7,2 C 69 % 1017,7 hPa 0,0 l/m 0 min 0 min 0,0 UV-I 0 W/m 20,6 km/h (4 Bft)
03.10.2013 07:10 8,3 C 7,2 C 69 % 1017,7 hPa 0,0 l/m 0 min 0 min 0,0 UV-I 0 W/m 33,5 km/h (5 Bft)
03.10.2013 07:12 8,2 C 6,7 C 69 % 1017,5 hPa 0,0 l/m 0 min 0 min 0,0 UV-I 0 W/m 23,2 km/h (4 Bft)
03.10.2013 07:14 8,2 C 6,7 C 69 % 1017,4 hPa 0,0 l/m 0 min 0 min 0,0 UV-I 0 W/m 28,3 km/h (4 Bft)
03.10.2013 07:16 8,2 C 6,7 C 69 % 1017,3 hPa 0,0 l/m 0 min 0 min 0,0 UV-I 0 W/m 25,7 km/h (4 Bft)
03.10.2013 07:18 8,2 C 6,7 C 69 % 1017,3 hPa 0,0 l/m 0 min 0 min 0,0 UV-I 0 W/m 30,9 km/h (5 Bft)
03.10.2013 07:20 8,2 C 6,7 C 69 % 1017,3 hPa 0,0 l/m 0 min 0 min 0,0 UV-I 0 W/m 18,0 km/h (3 Bft)
03.10.2013 07:22 8,2 C 6,7 C 69 % 1017,4 hPa 0,0 l/m 0 min 0 min 0,0 UV-I 0 W/m 38,6 km/h (5 Bft)
03.10.2013 07:24 8,2 C 6,7 C 69 % 1017,4 hPa 0,0 l/m 0 min 0 min 0,0 UV-I 0 W/m 25,7 km/h (4 Bft)
03.10.2013 07:26 8,2 C 6,7 C 69 % 1017,5 hPa 0,0 l/m 0 min 0 min 0,0 UV-I 0 W/m 23,2 km/h (4 Bft)
03.10.2013 07:28 8,2 C 6,7 C 69 % 1017,4 hPa 0,0 l/m 0 min 0 min 0,0 UV-I 5 W/m 30,9 km/h (5 Bft)
03.10.2013 07:30 8,1 C 6,7 C 69 % 1017,5 hPa 0,0 l/m 0 min 0 min 0,0 UV-I 5 W/m 25,7 km/h (4 Bft)
03.10.2013 07:32 8,1 C 6,7 C 69 % 1017,5 hPa 0,0 l/m 0 min 0 min 0,0 UV-I 5 W/m 30,9 km/h (5 Bft)
03.10.2013 07:34 8,1 C 6,7 C 69 % 1017,4 hPa 0,0 l/m 0 min 0 min 0,0 UV-I 5 W/m 30,9 km/h (5 Bft)
03.10.2013 07:36 8,1 C 6,7 C 69 % 1017,3 hPa 0,0 l/m 0 min 0 min 0,0 UV-I 7 W/m 25,7 km/h (4 Bft)
03.10.2013 07:38 8,1 C 6,7 C 69 % 1017,4 hPa 0,0 l/m 0 min 0 min 0,0 UV-I 7 W/m 20,6 km/h (4 Bft)
03.10.2013 07:40 8,1 C 6,7 C 69 % 1017,4 hPa 0,0 l/m 0 min 0 min 0,0 UV-I 7 W/m 38,6 km/h (5 Bft)
03.10.2013 07:42 8,1 C 6,7 C 69 % 1017,6 hPa 0,0 l/m 0 min 0 min 0,0 UV-I 9 W/m 33,5 km/h (5 Bft)
03.10.2013 07:44 8,1 C 6,7 C 69 % 1017,4 hPa 0,0 l/m 0 min 0 min 0,0 UV-I 9 W/m 38,6 km/h (5 Bft)
03.10.2013 07:46 8,1 C 6,7 C 69 % 1017,5 hPa 0,0 l/m 0 min 0 min 0,0 UV-I 12 W/m 28,3 km/h (4 Bft)
03.10.2013 07:48 8,1 C 6,7 C 69 % 1017,4 hPa 0,0 l/m 0 min 0 min 0,0 UV-I 12 W/m 28,3 km/h (4 Bft)
03.10.2013 07:50 8,0 C 6,7 C 69 % 1017,4 hPa 0,0 l/m 0 min 0 min 0,0 UV-I 14 W/m 23,2 km/h (4 Bft)
03.10.2013 07:52 8,0 C 6,7 C 69 % 1017,4 hPa 0,0 l/m 0 min 0 min 0,0 UV-I 18 W/m 23,2 km/h (4 Bft)
03.10.2013 07:54 8,0 C 6,7 C 69 % 1017,5 hPa 0,0 l/m 2 min 0 min 0,0 UV-I 19 W/m 23,2 km/h (4 Bft)
03.10.2013 07:56 8,0 C 6,7 C 69 % 1017,4 hPa 0,0 l/m 2 min 0 min 0,0 UV-I 19 W/m 23,2 km/h (4 Bft)
03.10.2013 07:58 8,0 C 6,7 C 69 % 1017,5 hPa 0,0 l/m 2 min 0 min 0,0 UV-I 23 W/m 23,2 km/h (4 Bft)
03.10.2013 08:00 8,0 C 6,7 C 69 % 1017,5 hPa 0,0 l/m 2 min 0 min 0,0 UV-I 25 W/m 30,9 km/h (5 Bft)
03.10.2013 08:02 8,0 C 6,7 C 69 % 1017,5 hPa 0,0 l/m 0 min 0 min 0,0 UV-I 26 W/m 25,7 km/h (4 Bft)
03.10.2013 08:06 8,0 C 6,7 C 69 % 1017,5 hPa 0,0 l/m 0 min 0 min 0,0 UV-I 32 W/m 38,6 km/h (5 Bft)
03.10.2013 08:08 8,0 C 6,7 C 69 % 1017,5 hPa 0,0 l/m 0 min 0 min 0,0 UV-I 33 W/m 23,2 km/h (4 Bft)
03.10.2013 08:10 8,0 C 6,7 C 69 % 1017,6 hPa 0,0 l/m 0 min 0 min 0,0 UV-I 35 W/m 23,2 km/h (4 Bft)
03.10.2013 08:12 8,0 C 6,7 C 69 % 1017,5 hPa 0,0 l/m 0 min 0 min 0,0 UV-I 37 W/m 25,7 km/h (4 Bft)
03.10.2013 08:14 8,0 C 6,7 C 69 % 1017,6 hPa 0,0 l/m 0 min 0 min 0,0 UV-I 39 W/m 25,7 km/h (4 Bft)
03.10.2013 08:16 8,1 C 7,2 C 69 % 1017,5 hPa 0,0 l/m 0 min 0 min 0,0 UV-I 40 W/m 25,7 km/h (4 Bft)
03.10.2013 08:18 8,1 C 7,2 C 69 % 1017,6 hPa 0,0 l/m 0 min 0 min 0,0 UV-I 42 W/m 25,7 km/h (4 Bft)
03.10.2013 08:20 8,1 C 7,2 C 69 % 1017,6 hPa 0,0 l/m 0 min 0 min 0,0 UV-I 44 W/m 18,0 km/h (3 Bft)
03.10.2013 08:22 8,1 C 7,2 C 68 % 1017,6 hPa 0,0 l/m 2 min 0 min 0,0 UV-I 58 W/m 20,6 km/h (4 Bft)
03.10.2013 08:24 8,1 C 7,2 C 68 % 1017,7 hPa 0,0 l/m 2 min 0 min 0,0 UV-I 69 W/m 23,2 km/h (4 Bft)
03.10.2013 08:26 8,2 C 7,2 C 68 % 1017,6 hPa 0,0 l/m 2 min 0 min 0,0 UV-I 70 W/m 30,9 km/h (5 Bft)
03.10.2013 08:28 8,2 C 7,2 C 68 % 1017,6 hPa 0,0 l/m 2 min 0 min 0,0 UV-I 72 W/m 30,9 km/h (5 Bft)
03.10.2013 08:30 8,2 C 7,2 C 68 % 1017,6 hPa 0,0 l/m 2 min 0 min 0,0 UV-I 76 W/m 28,3 km/h (4 Bft)
03.10.2013 08:32 8,2 C 7,2 C 68 % 1017,6 hPa 0,0 l/m 2 min 0 min 0,0 UV-I 81 W/m 20,6 km/h (4 Bft)
03.10.2013 08:34 8,2 C 7,2 C 68 % 1017,5 hPa 0,0 l/m 2 min 0 min 0,0 UV-I 81 W/m 33,5 km/h (5 Bft)
03.10.2013 08:36 8,3 C 7,2 C 68 % 1017,5 hPa 0,0 l/m 2 min 0 min 0,0 UV-I 79 W/m 28,3 km/h (4 Bft)
03.10.2013 08:38 8,3 C 7,2 C 68 % 1017,5 hPa 0,0 l/m 0 min 0 min 0,0 UV-I 77 W/m 36,0 km/h (5 Bft)
03.10.2013 08:40 8,3 C 7,2 C 68 % 1017,6 hPa 0,0 l/m 0 min 0 min 0,0 UV-I 79 W/m 36,0 km/h (5 Bft)
03.10.2013 08:42 8,3 C 7,2 C 68 % 1017,6 hPa 0,0 l/m 0 min 0 min 0,0 UV-I 81 W/m 18,0 km/h (3 Bft)
03.10.2013 08:44 8,3 C 7,2 C 68 % 1017,6 hPa 0,0 l/m 0 min 0 min 0,0 UV-I 88 W/m 43,8 km/h (6 Bft)
03.10.2013 08:46 8,3 C 7,2 C 68 % 1017,7 hPa 0,0 l/m 0 min 0 min 0,0 UV-I 88 W/m 25,7 km/h (4 Bft)
03.10.2013 08:48 8,3 C 7,2 C 68 % 1017,6 hPa 0,0 l/m 0 min 0 min 0,0 UV-I 90 W/m 30,9 km/h (5 Bft)
03.10.2013 08:50 8,3 C 7,2 C 68 % 1017,6 hPa 0,0 l/m 0 min 0 min 0,0 UV-I 93 W/m 33,5 km/h (5 Bft)
03.10.2013 08:52 8,4 C 7,2 C 68 % 1017,6 hPa 0,0 l/m 2 min 0 min 0,0 UV-I 104 W/m 30,9 km/h (5 Bft)
03.10.2013 08:54 8,4 C 7,2 C 67 % 1017,6 hPa 0,0 l/m 2 min 0 min 0,0 UV-I 105 W/m 28,3 km/h (4 Bft)
03.10.2013 08:56 8,4 C 7,2 C 67 % 1017,6 hPa 0,0 l/m 2 min 0 min 0,0 UV-I 114 W/m 30,9 km/h (5 Bft)
03.10.2013 08:58 8,4 C 7,8 C 67 % 1017,6 hPa 0,0 l/m 2 min 0 min 0,0 UV-I 114 W/m 30,9 km/h (5 Bft)
03.10.2013 09:00 8,5 C 7,8 C 67 % 1017,5 hPa 0,0 l/m 2 min 0 min 0,0 UV-I 125 W/m 28,3 km/h (4 Bft)
03.10.2013 09:02 8,6 C 7,8 C 67 % 1017,5 hPa 0,0 l/m 2 min 0 min 0,0 UV-I 135 W/m 25,7 km/h (4 Bft)
03.10.2013 09:06 8,6 C 7,8 C 67 % 1017,4 hPa 0,0 l/m 2 min 0 min 0,0 UV-I 148 W/m 20,6 km/h (4 Bft)
03.10.2013 09:08 8,7 C 7,8 C 68 % 1017,4 hPa 0,0 l/m 2 min 0 min 0,0 UV-I 151 W/m 25,7 km/h (4 Bft)
03.10.2013 09:10 8,7 C 7,8 C 67 % 1017,4 hPa 0,0 l/m 2 min 0 min 0,0 UV-I 163 W/m 23,2 km/h (4 Bft)
03.10.2013 09:12 8,7 C 7,8 C 67 % 1017,4 hPa 0,0 l/m 2 min 0 min 0,0 UV-I 167 W/m 30,9 km/h (5 Bft)
03.10.2013 09:14 8,7 C 7,8 C 67 % 1017,5 hPa 0,0 l/m 2 min 0 min 0,0 UV-I 174 W/m 30,9 km/h (5 Bft)
03.10.2013 09:16 8,8 C 7,8 C 67 % 1017,4 hPa 0,0 l/m 2 min 0 min 0,0 UV-I 174 W/m 38,6 km/h (5 Bft)
03.10.2013 09:18 8,8 C 7,8 C 67 % 1017,5 hPa 0,0 l/m 2 min 0 min 0,0 UV-I 176 W/m 28,3 km/h (4 Bft)
03.10.2013 09:20 8,9 C 7,8 C 66 % 1017,4 hPa 0,0 l/m 2 min 0 min 0,0 UV-I 172 W/m 30,9 km/h (5 Bft)
03.10.2013 09:22 8,9 C 7,8 C 66 % 1017,5 hPa 0,0 l/m 2 min 0 min 0,0 UV-I 156 W/m 25,7 km/h (4 Bft)
03.10.2013 09:24 8,9 C 7,8 C 66 % 1017,5 hPa 0,0 l/m 2 min 0 min 0,0 UV-I 178 W/m 30,9 km/h (5 Bft)
03.10.2013 09:26 8,9 C 7,8 C 66 % 1017,5 hPa 0,0 l/m 2 min 0 min 0,0 UV-I 148 W/m 20,6 km/h (4 Bft)
03.10.2013 09:28 8,9 C 7,8 C 66 % 1017,5 hPa 0,0 l/m 2 min 0 min 0,0 UV-I 169 W/m 41,2 km/h (6 Bft)
03.10.2013 09:30 8,9 C 7,8 C 66 % 1017,6 hPa 0,0 l/m 2 min 0 min 0,0 UV-I 174 W/m 23,2 km/h (4 Bft)
03.10.2013 09:32 9,0 C 8,3 C 66 % 1017,6 hPa 0,0 l/m 0 min 0 min 0,0 UV-I 132 W/m 18,0 km/h (3 Bft)
03.10.2013 09:34 9,1 C 8,3 C 66 % 1017,5 hPa 0,0 l/m 0 min 0 min 0,0 UV-I 128 W/m 23,2 km/h (4 Bft)
03.10.2013 09:36 9,1 C 8,3 C 66 % 1017,5 hPa 0,0 l/m 2 min 0 min 0,0 UV-I 163 W/m 18,0 km/h (3 Bft)
03.10.2013 09:38 9,1 C 8,3 C 66 % 1017,6 hPa 0,0 l/m 2 min 0 min 0,0 UV-I 183 W/m 12,9 km/h (3 Bft)
03.10.2013 09:40 9,1 C 8,3 C 66 % 1017,6 hPa 0,0 l/m 2 min 0 min 0,0 UV-I 183 W/m 23,2 km/h (4 Bft)
03.10.2013 09:42 9,1 C 8,3 C 66 % 1017,6 hPa 0,0 l/m 2 min 0 min 0,0 UV-I 176 W/m 18,0 km/h (3 Bft)
03.10.2013 09:44 9,2 C 8,3 C 66 % 1017,6 hPa 0,0 l/m 2 min 0 min 0,0 UV-I 179 W/m 20,6 km/h (4 Bft)
03.10.2013 09:46 9,2 C 8,3 C 66 % 1017,5 hPa 0,0 l/m 2 min 0 min 0,0 UV-I 199 W/m 23,2 km/h (4 Bft)
03.10.2013 09:48 9,3 C 8,3 C 65 % 1017,5 hPa 0,0 l/m 2 min 0 min 0,0 UV-I 223 W/m 23,2 km/h (4 Bft)
03.10.2013 09:50 9,3 C 8,3 C 65 % 1017,5 hPa 0,0 l/m 2 min 0 min 0,0 UV-I 232 W/m 25,7 km/h (4 Bft)
03.10.2013 09:52 9,4 C 8,3 C 65 % 1017,5 hPa 0,0 l/m 2 min 0 min 0,0 UV-I 244 W/m 20,6 km/h (4 Bft)
03.10.2013 09:54 9,5 C 8,3 C 64 % 1017,5 hPa 0,0 l/m 2 min 0 min 0,0 UV-I 255 W/m 28,3 km/h (4 Bft)
03.10.2013 09:56 9,6 C 8,3 C 65 % 1017,5 hPa 0,0 l/m 2 min 0 min 0,0 UV-I 255 W/m 18,0 km/h (3 Bft)
03.10.2013 09:58 9,7 C 8,9 C 65 % 1017,4 hPa 0,0 l/m 2 min 0 min 0,0 UV-I 267 W/m 30,9 km/h (5 Bft)
03.10.2013 10:00 9,8 C 8,9 C 64 % 1017,4 hPa 0,0 l/m 2 min 0 min 0,0 UV-I 279 W/m 23,2 km/h (4 Bft)
03.10.2013 10:02 9,9 C 8,9 C 65 % 1017,4 hPa 0,0 l/m 2 min 0 min 0,0 UV-I 281 W/m 18,0 km/h (3 Bft)
03.10.2013 10:06 10,2 C 8,9 C 64 % 1017,6 hPa 0,0 l/m 2 min 0 min 0,0 UV-I 271 W/m 23,2 km/h (4 Bft)
03.10.2013 10:08 10,2 C 8,9 C 63 % 1017,5 hPa 0,0 l/m 2 min 0 min 0,0 UV-I 274 W/m 25,7 km/h (4 Bft)
03.10.2013 10:10 10,2 C 8,9 C 63 % 1017,5 hPa 0,0 l/m 2 min 0 min 0,0 UV-I 287 W/m 10,3 km/h (2 Bft)
03.10.2013 10:12 10,3 C 8,9 C 63 % 1017,7 hPa 0,0 l/m 2 min 0 min 0,0 UV-I 251 W/m 23,2 km/h (4 Bft)
03.10.2013 10:14 10,3 C 8,9 C 62 % 1017,6 hPa 0,0 l/m 2 min 0 min 0,0 UV-I 241 W/m 25,7 km/h (4 Bft)
03.10.2013 10:16 10,3 C 8,9 C 62 % 1017,7 hPa 0,0 l/m 2 min 0 min 0,0 UV-I 265 W/m 33,5 km/h (5 Bft)
03.10.2013 10:18 10,3 C 9,4 C 62 % 1017,5 hPa 0,0 l/m 2 min 0 min 0,0 UV-I 267 W/m 20,6 km/h (4 Bft)
03.10.2013 10:20 10,3 C 9,4 C 62 % 1017,6 hPa 0,0 l/m 0 min 0 min 0,0 UV-I 163 W/m 30,9 km/h (5 Bft)
03.10.2013 10:22 10,3 C 8,9 C 61 % 1017,6 hPa 0,0 l/m 0 min 0 min 0,0 UV-I 104 W/m 38,6 km/h (5 Bft)
03.10.2013 10:24 10,2 C 8,9 C 61 % 1017,5 hPa 0,0 l/m 0 min 0 min 0,0 UV-I 209 W/m 28,3 km/h (4 Bft)
03.10.2013 10:26 10,1 C 8,9 C 61 % 1017,5 hPa 0,0 l/m 2 min 0 min 0,0 UV-I 294 W/m 33,5 km/h (5 Bft)
03.10.2013 10:28 10,2 C 8,9 C 62 % 1017,6 hPa 0,0 l/m 2 min 0 min 0,5 UV-I 299 W/m 28,3 km/h (4 Bft)
03.10.2013 10:30 10,2 C 9,4 C 62 % 1017,6 hPa 0,0 l/m 2 min 0 min 0,0 UV-I 285 W/m 25,7 km/h (4 Bft)
03.10.2013 10:32 10,3 C 9,4 C 62 % 1017,5 hPa 0,0 l/m 2 min 0 min 0,5 UV-I 309 W/m 28,3 km/h (4 Bft)
03.10.2013 10:34 10,4 C 9,4 C 62 % 1017,6 hPa 0,0 l/m 2 min 0 min 0,5 UV-I 336 W/m 25,7 km/h (4 Bft)
03.10.2013 10:36 10,6 C 9,4 C 62 % 1017,6 hPa 0,0 l/m 2 min 0 min 0,5 UV-I 265 W/m 41,2 km/h (6 Bft)
03.10.2013 10:38 10,6 C 9,4 C 61 % 1017,4 hPa 0,0 l/m 2 min 0 min 0,6 UV-I 309 W/m 33,5 km/h (5 Bft)
03.10.2013 10:40 10,7 C 9,4 C 61 % 1017,5 hPa 0,0 l/m 2 min 0 min 0,5 UV-I 276 W/m 28,3 km/h (4 Bft)
03.10.2013 10:42 10,7 C 9,4 C 61 % 1017,5 hPa 0,0 l/m 2 min 0 min 0,7 UV-I 387 W/m 36,0 km/h (5 Bft)
03.10.2013 10:44 10,7 C 10,0 C 61 % 1017,5 hPa 0,0 l/m 2 min 0 min 0,6 UV-I 329 W/m 30,9 km/h (5 Bft)
03.10.2013 10:46 10,8 C 10,0 C 62 % 1017,5 hPa 0,0 l/m 2 min 0 min 0,6 UV-I 309 W/m 20,6 km/h (4 Bft)
03.10.2013 10:48 10,9 C 10,0 C 61 % 1017,5 hPa 0,0 l/m 2 min 0 min 0,7 UV-I 387 W/m 20,6 km/h (4 Bft)
03.10.2013 10:50 11,1 C 10,0 C 60 % 1017,5 hPa 0,0 l/m 2 min 0 min 0,7 UV-I 332 W/m 20,6 km/h (4 Bft)
03.10.2013 10:52 11,1 C 10,0 C 60 % 1017,5 hPa 0,0 l/m 2 min 0 min 0,7 UV-I 295 W/m 23,2 km/h (4 Bft)
03.10.2013 10:54 11,1 C 10,0 C 59 % 1017,6 hPa 0,0 l/m 2 min 0 min 0,7 UV-I 311 W/m 30,9 km/h (5 Bft)
03.10.2013 10:56 11,1 C 10,0 C 60 % 1017,6 hPa 0,0 l/m 2 min 0 min 0,8 UV-I 336 W/m 28,3 km/h (4 Bft)
03.10.2013 10:58 11,1 C 10,0 C 60 % 1017,5 hPa 0,0 l/m 2 min 0 min 0,8 UV-I 422 W/m 23,2 km/h (4 Bft)
03.10.2013 11:00 11,2 C 10,0 C 60 % 1017,5 hPa 0,0 l/m 2 min 0 min 0,9 UV-I 422 W/m 33,5 km/h (5 Bft)
03.10.2013 11:02 11,2 C 10,6 C 59 % 1017,6 hPa 0,0 l/m 2 min 0 min 0,9 UV-I 422 W/m 30,9 km/h (5 Bft)
03.10.2013 11:06 11,4 C 10,6 C 59 % 1017,6 hPa 0,0 l/m 2 min 0 min 0,9 UV-I 381 W/m 25,7 km/h (4 Bft)
03.10.2013 11:08 11,6 C 10,6 C 60 % 1017,6 hPa 0,0 l/m 2 min 0 min 0,9 UV-I 387 W/m 23,2 km/h (4 Bft)
03.10.2013 11:10 11,7 C 10,6 C 59 % 1017,6 hPa 0,0 l/m 2 min 0 min 1,0 UV-I 392 W/m 36,0 km/h (5 Bft)
03.10.2013 11:12 11,7 C 10,6 C 58 % 1017,5 hPa 0,0 l/m 2 min 0 min 0,9 UV-I 360 W/m 28,3 km/h (4 Bft)
03.10.2013 11:14 11,7 C 10,6 C 59 % 1017,5 hPa 0,0 l/m 2 min 0 min 1,0 UV-I 410 W/m 33,5 km/h (5 Bft)
03.10.2013 11:16 11,8 C 11,1 C 59 % 1017,5 hPa 0,0 l/m 2 min 0 min 0,9 UV-I 404 W/m 23,2 km/h (4 Bft)
03.10.2013 11:18 11,8 C 11,1 C 59 % 1017,4 hPa 0,0 l/m 2 min 0 min 1,1 UV-I 427 W/m 36,0 km/h (5 Bft)
03.10.2013 11:20 11,9 C 11,1 C 58 % 1017,5 hPa 0,0 l/m 2 min 0 min 1,1 UV-I 432 W/m 25,7 km/h (4 Bft)
03.10.2013 11:22 11,9 C 11,1 C 58 % 1017,6 hPa 0,0 l/m 2 min 0 min 1,1 UV-I 417 W/m 43,8 km/h (6 Bft)
03.10.2013 11:24 11,9 C 11,1 C 58 % 1017,5 hPa 0,0 l/m 2 min 0 min 1,1 UV-I 404 W/m 25,7 km/h (4 Bft)
03.10.2013 11:26 11,9 C 11,1 C 58 % 1017,5 hPa 0,0 l/m 2 min 0 min 1,1 UV-I 408 W/m 33,5 km/h (5 Bft)
03.10.2013 11:28 11,9 C 11,1 C 58 % 1017,4 hPa 0,0 l/m 2 min 0 min 1,0 UV-I 385 W/m 20,6 km/h (4 Bft)
03.10.2013 11:30 12,1 C 11,1 C 58 % 1017,5 hPa 0,0 l/m 2 min 0 min 1,1 UV-I 381 W/m 23,2 km/h (4 Bft)
03.10.2013 11:32 12,1 C 11,1 C 58 % 1017,4 hPa 0,0 l/m 2 min 0 min 1,1 UV-I 411 W/m 30,9 km/h (5 Bft)
03.10.2013 11:34 12,1 C 11,1 C 57 % 1017,5 hPa 0,0 l/m 2 min 0 min 1,0 UV-I 297 W/m 33,5 km/h (5 Bft)
03.10.2013 11:36 12,1 C 11,1 C 57 % 1017,5 hPa 0,0 l/m 2 min 0 min 1,0 UV-I 334 W/m 25,7 km/h (4 Bft)
03.10.2013 11:38 12,1 C 11,1 C 58 % 1017,4 hPa 0,0 l/m 2 min 0 min 0,9 UV-I 279 W/m 36,0 km/h (5 Bft)
03.10.2013 11:40 12,1 C 11,1 C 58 % 1017,5 hPa 0,0 l/m 2 min 0 min 0,9 UV-I 290 W/m 30,9 km/h (5 Bft)
03.10.2013 11:42 12,1 C 11,1 C 58 % 1017,4 hPa 0,0 l/m 2 min 0 min 1,0 UV-I 336 W/m 25,7 km/h (4 Bft)
03.10.2013 11:44 12,1 C 11,1 C 58 % 1017,4 hPa 0,0 l/m 2 min 0 min 1,1 UV-I 329 W/m 38,6 km/h (5 Bft)
03.10.2013 11:46 12,1 C 11,7 C 58 % 1017,4 hPa 0,0 l/m 2 min 0 min 1,1 UV-I 362 W/m 23,2 km/h (4 Bft)
03.10.2013 11:48 12,2 C 11,7 C 59 % 1017,4 hPa 0,0 l/m 2 min 0 min 1,2 UV-I 367 W/m 30,9 km/h (5 Bft)
03.10.2013 11:50 12,2 C 11,7 C 58 % 1017,3 hPa 0,0 l/m 2 min 0 min 1,1 UV-I 315 W/m 23,2 km/h (4 Bft)
03.10.2013 11:52 12,3 C 11,7 C 58 % 1017,3 hPa 0,0 l/m 2 min 0 min 1,1 UV-I 322 W/m 33,5 km/h (5 Bft)
03.10.2013 11:54 12,4 C 11,7 C 59 % 1017,2 hPa 0,0 l/m 2 min 0 min 1,2 UV-I 364 W/m 18,0 km/h (3 Bft)
03.10.2013 11:56 12,5 C 11,7 C 58 % 1017,3 hPa 0,0 l/m 2 min 0 min 1,2 UV-I 322 W/m 33,5 km/h (5 Bft)
03.10.2013 11:58 12,5 C 11,7 C 57 % 1017,2 hPa 0,0 l/m 2 min 0 min 1,3 UV-I 417 W/m 43,8 km/h (6 Bft)
03.10.2013 12:00 12,6 C 12,2 C 58 % 1017,2 hPa 0,0 l/m 2 min 0 min 1,4 UV-I 445 W/m 33,5 km/h (5 Bft)
03.10.2013 12:02 12,7 C 12,2 C 58 % 1017,0 hPa 0,0 l/m 2 min 0 min 1,4 UV-I 468 W/m 30,9 km/h (5 Bft)
03.10.2013 12:06 12,8 C 12,2 C 57 % 1017,1 hPa 0,0 l/m 0 min 0 min 1,1 UV-I 276 W/m 28,3 km/h (4 Bft)
03.10.2013 12:08 12,8 C 11,1 C 58 % 1017,0 hPa 0,0 l/m 2 min 0 min 1,3 UV-I 320 W/m 28,3 km/h (4 Bft)
03.10.2013 12:10 12,7 C 10,6 C 59 % 1017,2 hPa 0,0 l/m 2 min 0 min 1,2 UV-I 309 W/m 30,9 km/h (5 Bft)
03.10.2013 12:12 12,6 C 10,6 C 58 % 1017,0 hPa 0,0 l/m 2 min 0 min 1,3 UV-I 357 W/m 23,2 km/h (4 Bft)
03.10.2013 12:14 12,7 C 11,1 C 59 % 1017,1 hPa 0,0 l/m 2 min 0 min 1,5 UV-I 355 W/m 20,6 km/h (4 Bft)
03.10.2013 12:16 12,9 C 11,7 C 59 % 1016,9 hPa 0,0 l/m 2 min 0 min 1,5 UV-I 468 W/m 20,6 km/h (4 Bft)
03.10.2013 12:18 13,1 C 11,7 C 59 % 1017,0 hPa 0,0 l/m 2 min 0 min 1,7 UV-I 522 W/m 25,7 km/h (4 Bft)
03.10.2013 12:20 13,1 C 11,7 C 58 % 1017,0 hPa 0,0 l/m 2 min 0 min 1,7 UV-I 497 W/m 18,0 km/h (3 Bft)
03.10.2013 12:22 13,3 C 12,2 C 58 % 1017,0 hPa 0,0 l/m 2 min 0 min 1,6 UV-I 496 W/m 23,2 km/h (4 Bft)
03.10.2013 12:24 13,4 C 12,2 C 56 % 1017,0 hPa 0,0 l/m 2 min 0 min 1,7 UV-I 510 W/m 33,5 km/h (5 Bft)
03.10.2013 12:26 13,4 C 12,2 C 57 % 1016,9 hPa 0,0 l/m 2 min 0 min 1,7 UV-I 489 W/m 30,9 km/h (5 Bft)
03.10.2013 12:28 13,4 C 12,2 C 57 % 1016,9 hPa 0,0 l/m 2 min 0 min 1,6 UV-I 494 W/m 28,3 km/h (4 Bft)
03.10.2013 12:30 13,6 C 12,2 C 57 % 1016,9 hPa 0,0 l/m 2 min 0 min 1,6 UV-I 497 W/m 25,7 km/h (4 Bft)
03.10.2013 12:32 13,6 C 12,2 C 56 % 1016,7 hPa 0,0 l/m 2 min 0 min 1,5 UV-I 420 W/m 41,2 km/h (6 Bft)
03.10.2013 12:34 13,5 C 12,2 C 57 % 1016,7 hPa 0,0 l/m 2 min 0 min 1,2 UV-I 380 W/m 25,7 km/h (4 Bft)
03.10.2013 12:36 13,6 C 12,2 C 57 % 1016,6 hPa 0,0 l/m 2 min 0 min 1,2 UV-I 397 W/m 28,3 km/h (4 Bft)
03.10.2013 12:38 13,7 C 12,8 C 57 % 1016,5 hPa 0,0 l/m 2 min 0 min 1,1 UV-I 396 W/m 18,0 km/h (3 Bft)
03.10.2013 12:40 13,7 C 12,8 C 56 % 1016,5 hPa 0,0 l/m 2 min 0 min 1,1 UV-I 411 W/m 28,3 km/h (4 Bft)
03.10.2013 12:42 13,8 C 12,8 C 57 % 1016,5 hPa 0,0 l/m 2 min 0 min 1,1 UV-I 471 W/m 20,6 km/h (4 Bft)
03.10.2013 12:44 13,9 C 12,8 C 56 % 1016,7 hPa 0,0 l/m 2 min 0 min 1,0 UV-I 455 W/m 25,7 km/h (4 Bft)
03.10.2013 12:46 13,9 C 12,8 C 56 % 1016,7 hPa 0,0 l/m 2 min 0 min 1,1 UV-I 497 W/m 43,8 km/h (6 Bft)
03.10.2013 12:48 14,0 C 12,8 C 56 % 1016,8 hPa 0,0 l/m 2 min 0 min 1,0 UV-I 427 W/m 28,3 km/h (4 Bft)
03.10.2013 12:50 14,1 C 12,8 C 55 % 1016,7 hPa 0,0 l/m 2 min 0 min 1,1 UV-I 468 W/m 33,5 km/h (5 Bft)
03.10.2013 12:52 14,2 C 13,3 C 56 % 1016,7 hPa 0,0 l/m 2 min 0 min 1,1 UV-I 492 W/m 25,7 km/h (4 Bft)
03.10.2013 12:54 14,2 C 13,3 C 55 % 1016,6 hPa 0,0 l/m 2 min 0 min 1,1 UV-I 494 W/m 25,7 km/h (4 Bft)
03.10.2013 12:56 14,2 C 13,3 C 56 % 1016,6 hPa 0,0 l/m 2 min 0 min 1,1 UV-I 462 W/m 30,9 km/h (5 Bft)
03.10.2013 12:58 14,3 C 13,3 C 54 % 1016,6 hPa 0,0 l/m 2 min 0 min 1,1 UV-I 441 W/m 20,6 km/h (4 Bft)
03.10.2013 13:00 14,4 C 13,3 C 55 % 1016,6 hPa 0,0 l/m 2 min 0 min 1,1 UV-I 455 W/m 28,3 km/h (4 Bft)
03.10.2013 13:02 14,3 C 13,3 C 54 % 1016,6 hPa 0,0 l/m 2 min 0 min 1,1 UV-I 454 W/m 25,7 km/h (4 Bft)
03.10.2013 13:06 14,6 C 13,9 C 55 % 1016,8 hPa 0,0 l/m 2 min 0 min 1,1 UV-I 508 W/m 28,3 km/h (4 Bft)
03.10.2013 13:08 14,7 C 13,9 C 54 % 1016,6 hPa 0,0 l/m 2 min 0 min 1,1 UV-I 501 W/m 30,9 km/h (5 Bft)
03.10.2013 13:10 14,8 C 13,9 C 54 % 1016,6 hPa 0,0 l/m 2 min 0 min 1,1 UV-I 487 W/m 33,5 km/h (5 Bft)
03.10.2013 13:12 14,8 C 13,9 C 54 % 1016,5 hPa 0,0 l/m 2 min 0 min 1,1 UV-I 490 W/m 20,6 km/h (4 Bft)
03.10.2013 13:14 14,9 C 13,9 C 54 % 1016,6 hPa 0,0 l/m 2 min 0 min 1,1 UV-I 492 W/m 18,0 km/h (3 Bft)
03.10.2013 13:16 15,0 C 13,9 C 53 % 1016,5 hPa 0,0 l/m 2 min 0 min 1,1 UV-I 480 W/m 30,9 km/h (5 Bft)
03.10.2013 13:18 15,0 C 13,9 C 54 % 1016,5 hPa 0,0 l/m 2 min 0 min 1,2 UV-I 471 W/m 15,4 km/h (3 Bft)
03.10.2013 13:20 15,1 C 13,9 C 55 % 1016,6 hPa 0,0 l/m 2 min 0 min 1,2 UV-I 468 W/m 23,2 km/h (4 Bft)
03.10.2013 13:22 15,2 C 13,9 C 55 % 1016,5 hPa 0,0 l/m 2 min 0 min 1,3 UV-I 489 W/m 30,9 km/h (5 Bft)
03.10.2013 13:24 15,1 C 13,9 C 53 % 1016,6 hPa 0,0 l/m 2 min 0 min 1,4 UV-I 490 W/m 28,3 km/h (4 Bft)
03.10.2013 13:26 15,1 C 13,9 C 54 % 1016,5 hPa 0,0 l/m 2 min 0 min 1,5 UV-I 468 W/m 41,2 km/h (6 Bft)
03.10.2013 13:28 15,1 C 13,9 C 53 % 1016,5 hPa 0,0 l/m 2 min 0 min 1,5 UV-I 452 W/m 28,3 km/h (4 Bft)
03.10.2013 13:30 15,1 C 13,9 C 54 % 1016,5 hPa 0,0 l/m 2 min 0 min 1,6 UV-I 480 W/m 25,7 km/h (4 Bft)
03.10.2013 13:32 15,2 C 13,9 C 54 % 1016,4 hPa 0,0 l/m 2 min 0 min 1,8 UV-I 492 W/m 20,6 km/h (4 Bft)
03.10.2013 13:34 15,3 C 14,4 C 54 % 1016,5 hPa 0,0 l/m 2 min 0 min 1,8 UV-I 489 W/m 20,6 km/h (4 Bft)
03.10.2013 13:36 15,4 C 14,4 C 53 % 1016,6 hPa 0,0 l/m 2 min 0 min 1,9 UV-I 508 W/m 30,9 km/h (5 Bft)
03.10.2013 13:38 15,4 C 14,4 C 53 % 1016,6 hPa 0,0 l/m 2 min 0 min 2,0 UV-I 541 W/m 25,7 km/h (4 Bft)
03.10.2013 13:40 15,5 C 14,4 C 54 % 1016,5 hPa 0,0 l/m 2 min 0 min 1,9 UV-I 536 W/m 30,9 km/h (5 Bft)
03.10.2013 13:42 15,5 C 14,4 C 53 % 1016,5 hPa 0,0 l/m 2 min 0 min 1,8 UV-I 469 W/m 25,7 km/h (4 Bft)
03.10.2013 13:44 15,4 C 14,4 C 53 % 1016,5 hPa 0,0 l/m 2 min 0 min 1,6 UV-I 420 W/m 36,0 km/h (5 Bft)
03.10.2013 13:46 15,4 C 14,4 C 53 % 1016,4 hPa 0,0 l/m 2 min 0 min 1,8 UV-I 469 W/m 38,6 km/h (5 Bft)
03.10.2013 13:48 15,4 C 13,9 C 53 % 1016,5 hPa 0,0 l/m 2 min 0 min 1,8 UV-I 396 W/m 46,3 km/h (6 Bft)
03.10.2013 13:50 15,3 C 13,9 C 53 % 1016,5 hPa 0,0 l/m 2 min 0 min 1,9 UV-I 485 W/m 46,3 km/h (6 Bft)
03.10.2013 13:52 15,3 C 14,4 C 54 % 1016,4 hPa 0,0 l/m 2 min 0 min 1,9 UV-I 547 W/m 33,5 km/h (5 Bft)
03.10.2013 13:54 15,4 C 14,4 C 54 % 1016,5 hPa 0,0 l/m 2 min 0 min 1,8 UV-I 459 W/m 23,2 km/h (4 Bft)
03.10.2013 13:56 15,5 C 14,4 C 54 % 1016,3 hPa 0,0 l/m 2 min 0 min 2,0 UV-I 527 W/m 28,3 km/h (4 Bft)
03.10.2013 13:58 15,6 C 14,4 C 53 % 1016,3 hPa 0,0 l/m 2 min 0 min 1,9 UV-I 538 W/m 28,3 km/h (4 Bft)
03.10.2013 14:00 15,7 C 14,4 C 54 % 1016,3 hPa 0,0 l/m 2 min 0 min 1,7 UV-I 462 W/m 28,3 km/h (4 Bft)
03.10.2013 14:02 15,8 C 15,0 C 55 % 1016,2 hPa 0,0 l/m 2 min 0 min 1,9 UV-I 526 W/m 20,6 km/h (4 Bft)
03.10.2013 14:06 15,9 C 15,0 C 54 % 1016,2 hPa 0,0 l/m 2 min 0 min 1,8 UV-I 443 W/m 23,2 km/h (4 Bft)
03.10.2013 14:08 16,0 C 15,0 C 54 % 1016,2 hPa 0,0 l/m 2 min 0 min 1,9 UV-I 548 W/m 23,2 km/h (4 Bft)
03.10.2013 14:10 16,1 C 15,0 C 54 % 1016,2 hPa 0,0 l/m 2 min 0 min 1,8 UV-I 517 W/m 23,2 km/h (4 Bft)
03.10.2013 14:12 16,2 C 15,0 C 53 % 1016,2 hPa 0,0 l/m 2 min 0 min 1,7 UV-I 429 W/m 33,5 km/h (5 Bft)
03.10.2013 14:14 16,1 C 15,0 C 53 % 1016,2 hPa 0,0 l/m 2 min 0 min 1,8 UV-I 526 W/m 28,3 km/h (4 Bft)
03.10.2013 14:16 16,1 C 15,0 C 54 % 1016,2 hPa 0,0 l/m 2 min 0 min 1,7 UV-I 468 W/m 28,3 km/h (4 Bft)
03.10.2013 14:18 16,0 C 15,0 C 54 % 1016,1 hPa 0,0 l/m 2 min 0 min 1,5 UV-I 417 W/m 30,9 km/h (5 Bft)
03.10.2013 14:20 15,9 C 15,0 C 54 % 1016,1 hPa 0,0 l/m 2 min 0 min 1,7 UV-I 346 W/m 23,2 km/h (4 Bft)
03.10.2013 14:22 15,9 C 14,4 C 54 % 1016,1 hPa 0,0 l/m 2 min 0 min 1,5 UV-I 378 W/m 28,3 km/h (4 Bft)
03.10.2013 14:24 15,9 C 15,0 C 55 % 1016,2 hPa 0,0 l/m 2 min 0 min 1,7 UV-I 448 W/m 23,2 km/h (4 Bft)
03.10.2013 14:26 15,9 C 15,0 C 55 % 1016,1 hPa 0,0 l/m 2 min 0 min 1,7 UV-I 441 W/m 28,3 km/h (4 Bft)
03.10.2013 14:28 15,9 C 15,0 C 54 % 1016,1 hPa 0,0 l/m 2 min 0 min 1,7 UV-I 517 W/m 18,0 km/h (3 Bft)
03.10.2013 14:30 16,1 C 15,0 C 55 % 1016,1 hPa 0,0 l/m 2 min 0 min 1,6 UV-I 415 W/m 28,3 km/h (4 Bft)
03.10.2013 14:32 16,1 C 15,0 C 55 % 1016,1 hPa 0,0 l/m 2 min 0 min 1,8 UV-I 492 W/m 12,9 km/h (3 Bft)
03.10.2013 14:34 16,2 C 15,0 C 55 % 1016,0 hPa 0,0 l/m 2 min 0 min 1,8 UV-I 515 W/m 25,7 km/h (4 Bft)
03.10.2013 14:36 16,4 C 15,0 C 55 % 1016,1 hPa 0,0 l/m 2 min 0 min 1,6 UV-I 394 W/m 33,5 km/h (5 Bft)
03.10.2013 14:38 16,4 C 15,0 C 53 % 1016,2 hPa 0,0 l/m 2 min 0 min 1,5 UV-I 369 W/m 33,5 km/h (5 Bft)
03.10.2013 14:40 16,3 C 15,0 C 54 % 1016,2 hPa 0,0 l/m 2 min 0 min 1,5 UV-I 385 W/m 23,2 km/h (4 Bft)
03.10.2013 14:42 16,3 C 15,0 C 54 % 1016,0 hPa 0,0 l/m 2 min 0 min 1,6 UV-I 473 W/m 33,5 km/h (5 Bft)
03.10.2013 14:44 16,3 C 15,0 C 54 % 1016,0 hPa 0,0 l/m 2 min 0 min 1,6 UV-I 462 W/m 33,5 km/h (5 Bft)
03.10.2013 14:46 16,4 C 15,0 C 54 % 1015,9 hPa 0,0 l/m 2 min 0 min 1,6 UV-I 452 W/m 23,2 km/h (4 Bft)
03.10.2013 14:48 16,4 C 15,0 C 54 % 1015,8 hPa 0,0 l/m 2 min 0 min 1,6 UV-I 478 W/m 23,2 km/h (4 Bft)
03.10.2013 14:50 16,6 C 15,0 C 55 % 1015,8 hPa 0,0 l/m 2 min 0 min 1,7 UV-I 476 W/m 30,9 km/h (5 Bft)
03.10.2013 14:52 16,7 C 15,6 C 55 % 1015,8 hPa 0,0 l/m 2 min 0 min 1,6 UV-I 499 W/m 25,7 km/h (4 Bft)
03.10.2013 14:54 16,8 C 15,6 C 54 % 1015,8 hPa 0,0 l/m 2 min 0 min 1,6 UV-I 504 W/m 28,3 km/h (4 Bft)
03.10.2013 14:56 16,7 C 15,6 C 53 % 1015,7 hPa 0,0 l/m 2 min 0 min 1,6 UV-I 494 W/m 36,0 km/h (5 Bft)
03.10.2013 14:58 16,7 C 15,6 C 53 % 1015,6 hPa 0,0 l/m 2 min 0 min 1,5 UV-I 466 W/m 20,6 km/h (4 Bft)
03.10.2013 15:00 16,8 C 15,6 C 54 % 1015,6 hPa 0,0 l/m 2 min 0 min 1,5 UV-I 439 W/m 25,7 km/h (4 Bft)
03.10.2013 15:02 16,8 C 15,6 C 53 % 1015,5 hPa 0,0 l/m 2 min 0 min 1,4 UV-I 410 W/m 33,5 km/h (5 Bft)
03.10.2013 15:06 16,9 C 15,6 C 54 % 1015,5 hPa 0,0 l/m 2 min 0 min 1,5 UV-I 452 W/m 28,3 km/h (4 Bft)
03.10.2013 15:08 16,9 C 15,6 C 54 % 1015,5 hPa 0,0 l/m 2 min 0 min 1,4 UV-I 454 W/m 23,2 km/h (4 Bft)
03.10.2013 15:10 16,9 C 15,6 C 54 % 1015,5 hPa 0,0 l/m 2 min 0 min 1,4 UV-I 446 W/m 23,2 km/h (4 Bft)
03.10.2013 15:12 17,0 C 15,6 C 53 % 1015,5 hPa 0,0 l/m 2 min 0 min 1,5 UV-I 473 W/m 33,5 km/h (5 Bft)
03.10.2013 15:14 17,1 C 15,6 C 53 % 1015,5 hPa 0,0 l/m 2 min 0 min 1,4 UV-I 469 W/m 23,2 km/h (4 Bft)
03.10.2013 15:16 17,2 C 15,6 C 53 % 1015,5 hPa 0,0 l/m 2 min 0 min 1,4 UV-I 446 W/m 28,3 km/h (4 Bft)
03.10.2013 15:18 17,2 C 15,6 C 53 % 1015,5 hPa 0,0 l/m 2 min 0 min 1,4 UV-I 452 W/m 25,7 km/h (4 Bft)
03.10.2013 15:20 17,2 C 15,6 C 53 % 1015,6 hPa 0,0 l/m 2 min 0 min 1,3 UV-I 452 W/m 18,0 km/h (3 Bft)
03.10.2013 15:22 17,3 C 15,6 C 53 % 1015,5 hPa 0,0 l/m 2 min 0 min 1,3 UV-I 454 W/m 28,3 km/h (4 Bft)
03.10.2013 15:24 17,3 C 15,6 C 53 % 1015,5 hPa 0,0 l/m 2 min 0 min 1,3 UV-I 452 W/m 36,0 km/h (5 Bft)
03.10.2013 15:26 17,3 C 15,6 C 53 % 1015,5 hPa 0,0 l/m 2 min 0 min 1,3 UV-I 448 W/m 20,6 km/h (4 Bft)
03.10.2013 15:28 17,3 C 15,6 C 53 % 1015,4 hPa 0,0 l/m 2 min 0 min 1,3 UV-I 445 W/m 25,7 km/h (4 Bft)
03.10.2013 15:30 17,4 C 16,1 C 54 % 1015,4 hPa 0,0 l/m 2 min 0 min 1,2 UV-I 436 W/m 25,7 km/h (4 Bft)
03.10.2013 15:32 17,4 C 15,6 C 53 % 1015,4 hPa 0,0 l/m 2 min 0 min 1,2 UV-I 431 W/m 25,7 km/h (4 Bft)
03.10.2013 15:34 17,3 C 16,1 C 53 % 1015,3 hPa 0,0 l/m 2 min 0 min 1,2 UV-I 418 W/m 36,0 km/h (5 Bft)
03.10.2013 15:36 17,3 C 15,6 C 53 % 1015,3 hPa 0,0 l/m 2 min 0 min 1,1 UV-I 410 W/m 36,0 km/h (5 Bft)
03.10.2013 15:38 17,2 C 15,6 C 53 % 1015,4 hPa 0,0 l/m 2 min 0 min 1,1 UV-I 413 W/m 25,7 km/h (4 Bft)
03.10.2013 15:40 17,2 C 15,6 C 53 % 1015,3 hPa 0,0 l/m 2 min 0 min 1,1 UV-I 406 W/m 36,0 km/h (5 Bft)
03.10.2013 15:42 17,3 C 16,1 C 54 % 1015,3 hPa 0,0 l/m 2 min 0 min 1,1 UV-I 403 W/m 20,6 km/h (4 Bft)
03.10.2013 15:44 17,4 C 16,1 C 54 % 1015,4 hPa 0,0 l/m 2 min 0 min 1,0 UV-I 394 W/m 23,2 km/h (4 Bft)
03.10.2013 15:46 17,4 C 16,1 C 53 % 1015,3 hPa 0,0 l/m 2 min 0 min 1,0 UV-I 388 W/m 28,3 km/h (4 Bft)
03.10.2013 15:48 17,4 C 16,1 C 54 % 1015,3 hPa 0,0 l/m 2 min 0 min 1,0 UV-I 390 W/m 28,3 km/h (4 Bft)
03.10.2013 15:50 17,4 C 16,1 C 54 % 1015,2 hPa 0,0 l/m 2 min 0 min 1,0 UV-I 394 W/m 23,2 km/h (4 Bft)
03.10.2013 15:52 17,5 C 16,1 C 53 % 1015,2 hPa 0,0 l/m 2 min 0 min 0,9 UV-I 367 W/m 23,2 km/h (4 Bft)
03.10.2013 15:54 17,4 C 15,6 C 53 % 1015,1 hPa 0,0 l/m 2 min 0 min 0,9 UV-I 336 W/m 30,9 km/h (5 Bft)
03.10.2013 15:56 17,3 C 15,6 C 53 % 1015,2 hPa 0,0 l/m 2 min 0 min 0,9 UV-I 357 W/m 36,0 km/h (5 Bft)
03.10.2013 15:58 17,3 C 15,6 C 53 % 1015,1 hPa 0,0 l/m 2 min 0 min 0,8 UV-I 355 W/m 25,7 km/h (4 Bft)
03.10.2013 16:00 17,3 C 15,6 C 54 % 1015,1 hPa 0,0 l/m 2 min 0 min 0,8 UV-I 362 W/m 38,6 km/h (5 Bft)
03.10.2013 16:02 17,3 C 15,6 C 54 % 1015,1 hPa 0,0 l/m 2 min 0 min 0,8 UV-I 334 W/m 25,7 km/h (4 Bft)
03.10.2013 16:06 17,3 C 16,1 C 54 % 1015,3 hPa 0,0 l/m 2 min 0 min 0,8 UV-I 353 W/m 23,2 km/h (4 Bft)
03.10.2013 16:08 17,4 C 16,1 C 55 % 1015,2 hPa 0,0 l/m 2 min 0 min 0,7 UV-I 323 W/m 23,2 km/h (4 Bft)
03.10.2013 16:10 17,4 C 16,1 C 54 % 1015,2 hPa 0,0 l/m 2 min 0 min 0,7 UV-I 341 W/m 28,3 km/h (4 Bft)
03.10.2013 16:12 17,4 C 16,1 C 54 % 1015,2 hPa 0,0 l/m 2 min 0 min 0,6 UV-I 308 W/m 15,4 km/h (3 Bft)
03.10.2013 16:14 17,4 C 16,1 C 54 % 1015,3 hPa 0,0 l/m 2 min 0 min 0,6 UV-I 308 W/m 30,9 km/h (5 Bft)
03.10.2013 16:16 17,4 C 16,1 C 55 % 1015,3 hPa 0,0 l/m 2 min 0 min 0,6 UV-I 308 W/m 15,4 km/h (3 Bft)
03.10.2013 16:18 17,4 C 16,1 C 54 % 1015,3 hPa 0,0 l/m 2 min 0 min 0,6 UV-I 288 W/m 20,6 km/h (4 Bft)
03.10.2013 16:20 17,5 C 16,1 C 55 % 1015,3 hPa 0,0 l/m 2 min 0 min 0,6 UV-I 297 W/m 18,0 km/h (3 Bft)
03.10.2013 16:22 17,5 C 16,1 C 55 % 1015,3 hPa 0,0 l/m 2 min 0 min 0,5 UV-I 304 W/m 23,2 km/h (4 Bft)
03.10.2013 16:24 17,4 C 16,1 C 54 % 1015,2 hPa 0,0 l/m 2 min 0 min 0,5 UV-I 301 W/m 23,2 km/h (4 Bft)
03.10.2013 16:26 17,4 C 16,1 C 55 % 1015,1 hPa 0,0 l/m 2 min 0 min 0,5 UV-I 279 W/m 20,6 km/h (4 Bft)
03.10.2013 16:28 17,5 C 16,1 C 54 % 1015,0 hPa 0,0 l/m 2 min 0 min 0,5 UV-I 283 W/m 18,0 km/h (3 Bft)
03.10.2013 16:30 17,6 C 16,1 C 54 % 1015,0 hPa 0,0 l/m 2 min 0 min 0,0 UV-I 283 W/m 15,4 km/h (3 Bft)
03.10.2013 16:32 17,6 C 15,6 C 55 % 1015,0 hPa 0,0 l/m 0 min 0 min 0,0 UV-I 200 W/m 15,4 km/h (3 Bft)
03.10.2013 16:34 17,5 C 15,6 C 54 % 1014,9 hPa 0,0 l/m 2 min 0 min 0,0 UV-I 232 W/m 18,0 km/h (3 Bft)
03.10.2013 16:36 17,5 C 15,6 C 55 % 1014,8 hPa 0,0 l/m 2 min 0 min 0,0 UV-I 227 W/m 10,3 km/h (2 Bft)
03.10.2013 16:38 17,5 C 15,6 C 55 % 1015,0 hPa 0,0 l/m 2 min 0 min 0,0 UV-I 250 W/m 20,6 km/h (4 Bft)
03.10.2013 16:40 17,4 C 15,6 C 55 % 1015,0 hPa 0,0 l/m 2 min 0 min 0,0 UV-I 250 W/m 18,0 km/h (3 Bft)
03.10.2013 16:42 17,4 C 15,6 C 55 % 1015,0 hPa 0,0 l/m 2 min 0 min 0,0 UV-I 223 W/m 18,0 km/h (3 Bft)
03.10.2013 16:44 17,3 C 15,6 C 55 % 1015,0 hPa 0,0 l/m 2 min 0 min 0,0 UV-I 223 W/m 20,6 km/h (4 Bft)
03.10.2013 16:46 17,3 C 15,6 C 55 % 1015,0 hPa 0,0 l/m 2 min 0 min 0,0 UV-I 213 W/m 25,7 km/h (4 Bft)
03.10.2013 16:48 17,2 C 15,6 C 55 % 1014,9 hPa 0,0 l/m 2 min 0 min 0,0 UV-I 213 W/m 41,2 km/h (6 Bft)
03.10.2013 16:50 17,1 C 15,6 C 55 % 1014,9 hPa 0,0 l/m 2 min 0 min 0,0 UV-I 202 W/m 23,2 km/h (4 Bft)
03.10.2013 16:52 17,1 C 15,6 C 55 % 1014,9 hPa 0,0 l/m 2 min 0 min 0,0 UV-I 192 W/m 25,7 km/h (4 Bft)
03.10.2013 16:54 17,0 C 15,6 C 55 % 1014,9 hPa 0,0 l/m 2 min 0 min 0,0 UV-I 207 W/m 23,2 km/h (4 Bft)
03.10.2013 16:56 17,0 C 15,6 C 55 % 1014,9 hPa 0,0 l/m 2 min 0 min 0,0 UV-I 197 W/m 15,4 km/h (3 Bft)
03.10.2013 16:58 17,0 C 15,6 C 56 % 1014,9 hPa 0,0 l/m 0 min 0 min 0,0 UV-I 156 W/m 20,6 km/h (4 Bft)
03.10.2013 17:00 17,0 C 15,0 C 56 % 1014,9 hPa 0,0 l/m 0 min 0 min 0,0 UV-I 139 W/m 7,7 km/h (2 Bft)
03.10.2013 17:02 16,9 C 15,0 C 56 % 1015,0 hPa 0,0 l/m 0 min 0 min 0,0 UV-I 88 W/m 12,9 km/h (3 Bft)
03.10.2013 17:06 16,8 C 15,0 C 56 % 1015,0 hPa 0,0 l/m 0 min 0 min 0,0 UV-I 72 W/m 18,0 km/h (3 Bft)
03.10.2013 17:08 16,7 C 15,0 C 57 % 1015,0 hPa 0,0 l/m 0 min 0 min 0,0 UV-I 70 W/m 18,0 km/h (3 Bft)
03.10.2013 17:10 16,6 C 15,0 C 57 % 1014,9 hPa 0,0 l/m 0 min 0 min 0,0 UV-I 67 W/m 18,0 km/h (3 Bft)
03.10.2013 17:12 16,5 C 15,0 C 57 % 1014,9 hPa 0,0 l/m 0 min 0 min 0,0 UV-I 63 W/m 20,6 km/h (4 Bft)
03.10.2013 17:14 16,4 C 15,0 C 57 % 1014,9 hPa 0,0 l/m 0 min 0 min 0,0 UV-I 67 W/m 28,3 km/h (4 Bft)
03.10.2013 17:16 16,4 C 15,0 C 57 % 1014,9 hPa 0,0 l/m 0 min 0 min 0,0 UV-I 70 W/m 20,6 km/h (4 Bft)
03.10.2013 17:18 16,3 C 15,0 C 57 % 1014,9 hPa 0,0 l/m 0 min 0 min 0,0 UV-I 111 W/m 25,7 km/h (4 Bft)
03.10.2013 17:20 16,3 C 14,4 C 57 % 1014,9 hPa 0,0 l/m 0 min 0 min 0,0 UV-I 63 W/m 18,0 km/h (3 Bft)
03.10.2013 17:22 16,3 C 14,4 C 57 % 1014,9 hPa 0,0 l/m 0 min 0 min 0,0 UV-I 62 W/m 15,4 km/h (3 Bft)
03.10.2013 17:24 16,2 C 14,4 C 57 % 1014,9 hPa 0,0 l/m 0 min 0 min 0,0 UV-I 62 W/m 23,2 km/h (4 Bft)
03.10.2013 17:26 16,2 C 14,4 C 57 % 1014,9 hPa 0,0 l/m 0 min 0 min 0,0 UV-I 63 W/m 20,6 km/h (4 Bft)
03.10.2013 17:28 16,2 C 14,4 C 57 % 1014,9 hPa 0,0 l/m 0 min 0 min 0,0 UV-I 65 W/m 20,6 km/h (4 Bft)
03.10.2013 17:30 16,2 C 14,4 C 57 % 1014,9 hPa 0,0 l/m 0 min 0 min 0,0 UV-I 69 W/m 12,9 km/h (3 Bft)
03.10.2013 17:32 16,2 C 14,4 C 57 % 1014,9 hPa 0,0 l/m 0 min 0 min 0,0 UV-I 74 W/m 41,2 km/h (6 Bft)
03.10.2013 17:34 16,2 C 14,4 C 57 % 1014,9 hPa 0,0 l/m 0 min 0 min 0,0 UV-I 77 W/m 15,4 km/h (3 Bft)
03.10.2013 17:36 16,2 C 14,4 C 57 % 1014,8 hPa 0,0 l/m 0 min 0 min 0,0 UV-I 81 W/m 23,2 km/h (4 Bft)
03.10.2013 17:38 16,2 C 14,4 C 57 % 1014,8 hPa 0,0 l/m 0 min 0 min 0,0 UV-I 83 W/m 18,0 km/h (3 Bft)
03.10.2013 17:40 16,2 C 14,4 C 57 % 1014,8 hPa 0,0 l/m 0 min 0 min 0,0 UV-I 83 W/m 30,9 km/h (5 Bft)
03.10.2013 17:42 16,2 C 14,4 C 57 % 1014,9 hPa 0,0 l/m 0 min 0 min 0,0 UV-I 81 W/m 18,0 km/h (3 Bft)
03.10.2013 17:44 16,2 C 14,4 C 58 % 1014,9 hPa 0,0 l/m 0 min 0 min 0,0 UV-I 74 W/m 25,7 km/h (4 Bft)
03.10.2013 17:46 16,2 C 14,4 C 58 % 1014,9 hPa 0,0 l/m 0 min 0 min 0,0 UV-I 70 W/m 12,9 km/h (3 Bft)
03.10.2013 17:48 16,1 C 14,4 C 58 % 1014,9 hPa 0,0 l/m 0 min 0 min 0,0 UV-I 67 W/m 28,3 km/h (4 Bft)
03.10.2013 17:50 16,1 C 14,4 C 58 % 1014,9 hPa 0,0 l/m 0 min 0 min 0,0 UV-I 60 W/m 10,3 km/h (2 Bft)
03.10.2013 17:52 16,1 C 14,4 C 58 % 1014,9 hPa 0,0 l/m 0 min 0 min 0,0 UV-I 56 W/m 23,2 km/h (4 Bft)
03.10.2013 17:54 16,1 C 14,4 C 58 % 1014,9 hPa 0,0 l/m 0 min 0 min 0,0 UV-I 53 W/m 15,4 km/h (3 Bft)
03.10.2013 17:56 16,1 C 14,4 C 59 % 1014,9 hPa 0,0 l/m 0 min 0 min 0,0 UV-I 49 W/m 18,0 km/h (3 Bft)
03.10.2013 17:58 16,0 C 14,4 C 58 % 1014,9 hPa 0,0 l/m 0 min 0 min 0,0 UV-I 47 W/m 25,7 km/h (4 Bft)
03.10.2013 18:00 16,0 C 14,4 C 59 % 1015,0 hPa 0,0 l/m 0 min 0 min 0,0 UV-I 46 W/m 20,6 km/h (4 Bft)
03.10.2013 18:02 15,9 C 14,4 C 58 % 1014,8 hPa 0,0 l/m 0 min 0 min 0,0 UV-I 44 W/m 15,4 km/h (3 Bft)
03.10.2013 18:06 15,9 C 14,4 C 58 % 1014,9 hPa 0,0 l/m 0 min 0 min 0,0 UV-I 44 W/m 20,6 km/h (4 Bft)
03.10.2013 18:08 15,9 C 14,4 C 59 % 1014,9 hPa 0,0 l/m 0 min 0 min 0,0 UV-I 42 W/m 25,7 km/h (4 Bft)
03.10.2013 18:10 15,9 C 14,4 C 58 % 1014,9 hPa 0,0 l/m 0 min 0 min 0,0 UV-I 40 W/m 25,7 km/h (4 Bft)
03.10.2013 18:12 15,9 C 14,4 C 58 % 1014,9 hPa 0,0 l/m 0 min 0 min 0,0 UV-I 39 W/m 28,3 km/h (4 Bft)
03.10.2013 18:14 15,9 C 14,4 C 58 % 1014,8 hPa 0,0 l/m 0 min 0 min 0,0 UV-I 37 W/m 20,6 km/h (4 Bft)
03.10.2013 18:16 15,9 C 13,9 C 58 % 1014,8 hPa 0,0 l/m 0 min 0 min 0,0 UV-I 35 W/m 10,3 km/h (2 Bft)
03.10.2013 18:18 15,8 C 13,9 C 58 % 1014,8 hPa 0,0 l/m 0 min 0 min 0,0 UV-I 33 W/m 15,4 km/h (3 Bft)
03.10.2013 18:20 15,8 C 13,9 C 59 % 1014,7 hPa 0,0 l/m 0 min 0 min 0,0 UV-I 32 W/m 10,3 km/h (2 Bft)
03.10.2013 18:22 15,7 C 13,9 C 59 % 1014,8 hPa 0,0 l/m 0 min 0 min 0,0 UV-I 32 W/m 18,0 km/h (3 Bft)
03.10.2013 18:24 15,7 C 13,9 C 59 % 1014,7 hPa 0,0 l/m 0 min 0 min 0,0 UV-I 30 W/m 18,0 km/h (3 Bft)
03.10.2013 18:26 15,6 C 13,9 C 59 % 1014,7 hPa 0,0 l/m 0 min 0 min 0,0 UV-I 28 W/m 18,0 km/h (3 Bft)
03.10.2013 18:28 15,6 C 13,9 C 59 % 1014,8 hPa 0,0 l/m 0 min 0 min 0,0 UV-I 28 W/m 20,6 km/h (4 Bft)
03.10.2013 18:30 15,6 C 13,9 C 59 % 1014,8 hPa 0,0 l/m 0 min 0 min 0,0 UV-I 26 W/m 18,0 km/h (3 Bft)
03.10.2013 18:32 15,6 C 13,9 C 59 % 1014,8 hPa 0,0 l/m 0 min 0 min 0,0 UV-I 25 W/m 15,4 km/h (3 Bft)
03.10.2013 18:34 15,6 C 13,9 C 59 % 1014,8 hPa 0,0 l/m 0 min 0 min 0,0 UV-I 23 W/m 23,2 km/h (4 Bft)
03.10.2013 18:36 15,5 C 13,9 C 59 % 1014,8 hPa 0,0 l/m 0 min 0 min 0,0 UV-I 21 W/m 18,0 km/h (3 Bft)
03.10.2013 18:38 15,5 C 13,9 C 59 % 1014,8 hPa 0,0 l/m 0 min 0 min 0,0 UV-I 19 W/m 20,6 km/h (4 Bft)
03.10.2013 18:40 15,5 C 13,9 C 59 % 1014,8 hPa 0,0 l/m 0 min 0 min 0,0 UV-I 19 W/m 18,0 km/h (3 Bft)
03.10.2013 18:42 15,4 C 13,9 C 59 % 1014,9 hPa 0,0 l/m 0 min 0 min 0,0 UV-I 16 W/m 23,2 km/h (4 Bft)
03.10.2013 18:44 15,4 C 13,9 C 59 % 1015,0 hPa 0,0 l/m 0 min 0 min 0,0 UV-I 16 W/m 30,9 km/h (5 Bft)
03.10.2013 18:46 15,4 C 13,9 C 59 % 1015,0 hPa 0,0 l/m 0 min 0 min 0,0 UV-I 14 W/m 28,3 km/h (4 Bft)
03.10.2013 18:48 15,4 C 13,3 C 58 % 1015,0 hPa 0,0 l/m 0 min 0 min 0,0 UV-I 12 W/m 18,0 km/h (3 Bft)
03.10.2013 18:50 15,3 C 13,3 C 58 % 1014,9 hPa 0,0 l/m 0 min 0 min 0,0 UV-I 12 W/m 20,6 km/h (4 Bft)
03.10.2013 18:52 15,3 C 13,3 C 58 % 1014,9 hPa 0,0 l/m 0 min 0 min 0,0 UV-I 11 W/m 20,6 km/h (4 Bft)
03.10.2013 18:54 15,3 C 13,3 C 58 % 1014,9 hPa 0,0 l/m 0 min 0 min 0,0 UV-I 9 W/m 30,9 km/h (5 Bft)
03.10.2013 18:56 15,3 C 13,3 C 58 % 1014,9 hPa 0,0 l/m 0 min 0 min 0,0 UV-I 9 W/m 23,2 km/h (4 Bft)
03.10.2013 18:58 15,2 C 13,3 C 58 % 1014,9 hPa 0,0 l/m 0 min 0 min 0,0 UV-I 7 W/m 25,7 km/h (4 Bft)
03.10.2013 19:00 15,2 C 13,3 C 58 % 1015,0 hPa 0,0 l/m 0 min 0 min 0,0 UV-I 7 W/m 18,0 km/h (3 Bft)
03.10.2013 19:02 15,2 C 13,3 C 58 % 1014,9 hPa 0,0 l/m 0 min 0 min 0,0 UV-I 5 W/m 28,3 km/h (4 Bft)
03.10.2013 19:06 15,2 C 13,3 C 58 % 1015,0 hPa 0,0 l/m 0 min 0 min 0,0 UV-I 0 W/m 28,3 km/h (4 Bft)
03.10.2013 19:08 15,2 C 13,3 C 58 % 1014,9 hPa 0,0 l/m 0 min 0 min 0,0 UV-I 0 W/m 30,9 km/h (5 Bft)
03.10.2013 19:10 15,1 C 13,3 C 58 % 1014,9 hPa 0,0 l/m 0 min 0 min 0,0 UV-I 0 W/m 15,4 km/h (3 Bft)
03.10.2013 19:12 15,1 C 13,3 C 58 % 1014,8 hPa 0,0 l/m 0 min 0 min 0,0 UV-I 0 W/m 18,0 km/h (3 Bft)
03.10.2013 19:14 15,1 C 13,3 C 58 % 1014,9 hPa 0,0 l/m 0 min 0 min 0,0 UV-I 0 W/m 23,2 km/h (4 Bft)
03.10.2013 19:16 15,0 C 13,3 C 58 % 1015,0 hPa 0,0 l/m 0 min 0 min 0,0 UV-I 0 W/m 20,6 km/h (4 Bft)
03.10.2013 19:18 14,9 C 13,3 C 58 % 1014,9 hPa 0,0 l/m 0 min 0 min 0,0 UV-I 0 W/m 25,7 km/h (4 Bft)
03.10.2013 19:20 14,9 C 13,3 C 58 % 1014,9 hPa 0,0 l/m 0 min 0 min 0,0 UV-I 0 W/m 25,7 km/h (4 Bft)
03.10.2013 19:22 14,9 C 13,3 C 58 % 1014,9 hPa 0,0 l/m 0 min 0 min 0,0 UV-I 0 W/m 20,6 km/h (4 Bft)
03.10.2013 19:24 14,9 C 12,8 C 58 % 1014,9 hPa 0,0 l/m 0 min 0 min 0,0 UV-I 0 W/m 20,6 km/h (4 Bft)
03.10.2013 19:26 14,8 C 13,3 C 58 % 1015,0 hPa 0,0 l/m 0 min 0 min 0,0 UV-I 0 W/m 36,0 km/h (5 Bft)
03.10.2013 19:28 14,8 C 13,3 C 58 % 1014,9 hPa 0,0 l/m 0 min 0 min 0,0 UV-I 0 W/m 20,6 km/h (4 Bft)
03.10.2013 19:30 14,8 C 13,3 C 58 % 1014,9 hPa 0,0 l/m 0 min 0 min 0,0 UV-I 0 W/m 33,5 km/h (5 Bft)
03.10.2013 19:32 14,8 C 13,3 C 58 % 1015,0 hPa 0,0 l/m 0 min 0 min 0,0 UV-I 0 W/m 25,7 km/h (4 Bft)
03.10.2013 19:34 14,8 C 12,8 C 58 % 1015,0 hPa 0,0 l/m 0 min 0 min 0,0 UV-I 0 W/m 25,7 km/h (4 Bft)
03.10.2013 19:36 14,8 C 12,8 C 58 % 1015,1 hPa 0,0 l/m 0 min 0 min 0,0 UV-I 0 W/m 18,0 km/h (3 Bft)
03.10.2013 19:38 14,8 C 12,8 C 58 % 1015,1 hPa 0,0 l/m 0 min 0 min 0,0 UV-I 0 W/m 30,9 km/h (5 Bft)
03.10.2013 19:40 14,8 C 12,8 C 58 % 1015,2 hPa 0,0 l/m 0 min 0 min 0,0 UV-I 0 W/m 20,6 km/h (4 Bft)
03.10.2013 19:42 14,8 C 12,8 C 58 % 1015,3 hPa 0,0 l/m 0 min 0 min 0,0 UV-I 0 W/m 30,9 km/h (5 Bft)
03.10.2013 19:44 14,8 C 12,8 C 57 % 1015,3 hPa 0,0 l/m 0 min 0 min 0,0 UV-I 0 W/m 20,6 km/h (4 Bft)
03.10.2013 19:46 14,7 C 12,8 C 58 % 1015,3 hPa 0,0 l/m 0 min 0 min 0,0 UV-I 0 W/m 18,0 km/h (3 Bft)
03.10.2013 19:48 14,7 C 12,8 C 58 % 1015,3 hPa 0,0 l/m 0 min 0 min 0,0 UV-I 0 W/m 28,3 km/h (4 Bft)
03.10.2013 19:50 14,7 C 12,8 C 57 % 1015,2 hPa 0,0 l/m 0 min 0 min 0,0 UV-I 0 W/m 38,6 km/h (5 Bft)
03.10.2013 19:52 14,7 C 12,8 C 58 % 1015,2 hPa 0,0 l/m 0 min 0 min 0,0 UV-I 0 W/m 28,3 km/h (4 Bft)
03.10.2013 19:54 14,7 C 12,8 C 58 % 1015,3 hPa 0,0 l/m 0 min 0 min 0,0 UV-I 0 W/m 23,2 km/h (4 Bft)
03.10.2013 19:56 14,6 C 12,8 C 58 % 1015,3 hPa 0,0 l/m 0 min 0 min 0,0 UV-I 0 W/m 28,3 km/h (4 Bft)
03.10.2013 19:58 14,6 C 12,8 C 58 % 1015,3 hPa 0,0 l/m 0 min 0 min 0,0 UV-I 0 W/m 30,9 km/h (5 Bft)
03.10.2013 20:00 14,6 C 12,8 C 58 % 1015,4 hPa 0,0 l/m 0 min 0 min 0,0 UV-I 0 W/m 23,2 km/h (4 Bft)
03.10.2013 20:02 14,5 C 12,8 C 58 % 1015,4 hPa 0,0 l/m 0 min 0 min 0,0 UV-I 0 W/m 30,9 km/h (5 Bft)
03.10.2013 20:06 14,5 C 12,8 C 58 % 1015,4 hPa 0,0 l/m 0 min 0 min 0,0 UV-I 0 W/m 28,3 km/h (4 Bft)
03.10.2013 20:08 14,4 C 12,8 C 58 % 1015,3 hPa 0,0 l/m 0 min 0 min 0,0 UV-I 0 W/m 25,7 km/h (4 Bft)
03.10.2013 20:10 14,4 C 12,8 C 58 % 1015,3 hPa 0,0 l/m 0 min 0 min 0,0 UV-I 0 W/m 20,6 km/h (4 Bft)
03.10.2013 20:12 14,4 C 12,8 C 58 % 1015,4 hPa 0,0 l/m 0 min 0 min 0,0 UV-I 0 W/m 23,2 km/h (4 Bft)
03.10.2013 20:14 14,4 C 12,8 C 58 % 1015,4 hPa 0,0 l/m 0 min 0 min 0,0 UV-I 0 W/m 25,7 km/h (4 Bft)
03.10.2013 20:16 14,4 C 12,8 C 58 % 1015,3 hPa 0,0 l/m 0 min 0 min 0,0 UV-I 0 W/m 28,3 km/h (4 Bft)
03.10.2013 20:18 14,4 C 12,8 C 58 % 1015,4 hPa 0,0 l/m 0 min 0 min 0,0 UV-I 0 W/m 20,6 km/h (4 Bft)
03.10.2013 20:20 14,4 C 12,8 C 58 % 1015,3 hPa 0,0 l/m 0 min 0 min 0,0 UV-I 0 W/m 23,2 km/h (4 Bft)
03.10.2013 20:22 14,3 C 12,8 C 58 % 1015,4 hPa 0,0 l/m 0 min 0 min 0,0 UV-I 0 W/m 18,0 km/h (3 Bft)
03.10.2013 20:24 14,3 C 12,8 C 58 % 1015,4 hPa 0,0 l/m 0 min 0 min 0,0 UV-I 0 W/m 23,2 km/h (4 Bft)
03.10.2013 20:26 14,3 C 12,8 C 58 % 1015,4 hPa 0,0 l/m 0 min 0 min 0,0 UV-I 0 W/m 25,7 km/h (4 Bft)
03.10.2013 20:28 14,3 C 12,8 C 58 % 1015,4 hPa 0,0 l/m 0 min 0 min 0,0 UV-I 0 W/m 30,9 km/h (5 Bft)
03.10.2013 20:30 14,2 C 12,8 C 58 % 1015,4 hPa 0,0 l/m 0 min 0 min 0,0 UV-I 0 W/m 25,7 km/h (4 Bft)
03.10.2013 20:32 14,2 C 12,8 C 58 % 1015,4 hPa 0,0 l/m 0 min 0 min 0,0 UV-I 0 W/m 28,3 km/h (4 Bft)
03.10.2013 20:34 14,2 C 12,8 C 58 % 1015,4 hPa 0,0 l/m 0 min 0 min 0,0 UV-I 0 W/m 23,2 km/h (4 Bft)
03.10.2013 20:36 14,2 C 12,8 C 58 % 1015,4 hPa 0,0 l/m 0 min 0 min 0,0 UV-I 0 W/m 23,2 km/h (4 Bft)
03.10.2013 20:38 14,2 C 12,8 C 58 % 1015,5 hPa 0,0 l/m 0 min 0 min 0,0 UV-I 0 W/m 28,3 km/h (4 Bft)
03.10.2013 20:40 14,2 C 12,8 C 58 % 1015,4 hPa 0,0 l/m 0 min 0 min 0,0 UV-I 0 W/m 20,6 km/h (4 Bft)
03.10.2013 20:42 14,2 C 12,2 C 58 % 1015,4 hPa 0,0 l/m 0 min 0 min 0,0 UV-I 0 W/m 18,0 km/h (3 Bft)
03.10.2013 20:44 14,2 C 12,2 C 58 % 1015,4 hPa 0,0 l/m 0 min 0 min 0,0 UV-I 0 W/m 23,2 km/h (4 Bft)
03.10.2013 20:46 14,2 C 12,2 C 58 % 1015,4 hPa 0,0 l/m 0 min 0 min 0,0 UV-I 0 W/m 12,9 km/h (3 Bft)
03.10.2013 20:48 14,2 C 12,2 C 59 % 1015,4 hPa 0,0 l/m 0 min 0 min 0,0 UV-I 0 W/m 25,7 km/h (4 Bft)
03.10.2013 20:50 14,2 C 12,2 C 59 % 1015,4 hPa 0,0 l/m 0 min 0 min 0,0 UV-I 0 W/m 23,2 km/h (4 Bft)
03.10.2013 20:52 14,2 C 12,2 C 59 % 1015,4 hPa 0,0 l/m 0 min 0 min 0,0 UV-I 0 W/m 23,2 km/h (4 Bft)
03.10.2013 20:54 14,2 C 12,2 C 59 % 1015,4 hPa 0,0 l/m 0 min 0 min 0,0 UV-I 0 W/m 18,0 km/h (3 Bft)
03.10.2013 20:56 14,2 C 12,2 C 59 % 1015,4 hPa 0,0 l/m 0 min 0 min 0,0 UV-I 0 W/m 18,0 km/h (3 Bft)
03.10.2013 20:58 14,1 C 12,2 C 59 % 1015,4 hPa 0,0 l/m 0 min 0 min 0,0 UV-I 0 W/m 38,6 km/h (5 Bft)
03.10.2013 21:00 14,2 C 12,2 C 59 % 1015,4 hPa 0,0 l/m 0 min 0 min 0,0 UV-I 0 W/m 30,9 km/h (5 Bft)
03.10.2013 21:02 14,2 C 12,2 C 59 % 1015,3 hPa 0,0 l/m 0 min 0 min 0,0 UV-I 0 W/m 30,9 km/h (5 Bft)
03.10.2013 21:06 14,1 C 12,2 C 59 % 1015,4 hPa 0,0 l/m 0 min 0 min 0,0 UV-I 0 W/m 33,5 km/h (5 Bft)
03.10.2013 21:08 14,1 C 12,2 C 59 % 1015,3 hPa 0,0 l/m 0 min 0 min 0,0 UV-I 0 W/m 28,3 km/h (4 Bft)
03.10.2013 21:10 14,1 C 12,2 C 59 % 1015,4 hPa 0,0 l/m 0 min 0 min 0,0 UV-I 0 W/m 30,9 km/h (5 Bft)
03.10.2013 21:12 14,1 C 12,2 C 59 % 1015,3 hPa 0,0 l/m 0 min 0 min 0,0 UV-I 0 W/m 20,6 km/h (4 Bft)
03.10.2013 21:14 14,0 C 12,2 C 59 % 1015,3 hPa 0,0 l/m 0 min 0 min 0,0 UV-I 0 W/m 30,9 km/h (5 Bft)
03.10.2013 21:16 14,0 C 12,2 C 59 % 1015,3 hPa 0,0 l/m 0 min 0 min 0,0 UV-I 0 W/m 28,3 km/h (4 Bft)
03.10.2013 21:18 13,9 C 12,2 C 59 % 1015,4 hPa 0,0 l/m 0 min 0 min 0,0 UV-I 0 W/m 20,6 km/h (4 Bft)
03.10.2013 21:20 13,9 C 12,2 C 59 % 1015,4 hPa 0,0 l/m 0 min 0 min 0,0 UV-I 0 W/m 33,5 km/h (5 Bft)
03.10.2013 21:22 13,9 C 12,2 C 59 % 1015,4 hPa 0,0 l/m 0 min 0 min 0,0 UV-I 0 W/m 25,7 km/h (4 Bft)
03.10.2013 21:24 13,9 C 12,2 C 59 % 1015,4 hPa 0,0 l/m 0 min 0 min 0,0 UV-I 0 W/m 28,3 km/h (4 Bft)
03.10.2013 21:26 13,9 C 12,2 C 59 % 1015,4 hPa 0,0 l/m 0 min 0 min 0,0 UV-I 0 W/m 25,7 km/h (4 Bft)
03.10.2013 21:28 13,9 C 12,2 C 59 % 1015,5 hPa 0,0 l/m 0 min 0 min 0,0 UV-I 0 W/m 15,4 km/h (3 Bft)
03.10.2013 21:30 13,9 C 12,2 C 59 % 1015,5 hPa 0,0 l/m 0 min 0 min 0,0 UV-I 0 W/m 25,7 km/h (4 Bft)
03.10.2013 21:32 13,8 C 12,2 C 59 % 1015,5 hPa 0,0 l/m 0 min 0 min 0,0 UV-I 0 W/m 28,3 km/h (4 Bft)
03.10.2013 21:34 13,8 C 12,2 C 59 % 1015,5 hPa 0,0 l/m 0 min 0 min 0,0 UV-I 0 W/m 20,6 km/h (4 Bft)
03.10.2013 21:36 13,8 C 12,2 C 59 % 1015,4 hPa 0,0 l/m 0 min 0 min 0,0 UV-I 0 W/m 25,7 km/h (4 Bft)
03.10.2013 21:38 13,8 C 12,2 C 58 % 1015,5 hPa 0,0 l/m 0 min 0 min 0,0 UV-I 0 W/m 23,2 km/h (4 Bft)
03.10.2013 21:40 13,8 C 12,2 C 58 % 1015,6 hPa 0,0 l/m 0 min 0 min 0,0 UV-I 0 W/m 20,6 km/h (4 Bft)
03.10.2013 21:42 13,8 C 12,2 C 58 % 1015,5 hPa 0,0 l/m 0 min 0 min 0,0 UV-I 0 W/m 23,2 km/h (4 Bft)
03.10.2013 21:44 13,8 C 12,2 C 58 % 1015,6 hPa 0,0 l/m 0 min 0 min 0,0 UV-I 0 W/m 18,0 km/h (3 Bft)
03.10.2013 21:46 13,8 C 12,2 C 59 % 1015,6 hPa 0,0 l/m 0 min 0 min 0,0 UV-I 0 W/m 30,9 km/h (5 Bft)
03.10.2013 21:48 13,8 C 12,2 C 58 % 1015,6 hPa 0,0 l/m 0 min 0 min 0,0 UV-I 0 W/m 36,0 km/h (5 Bft)
03.10.2013 21:50 13,7 C 12,2 C 58 % 1015,6 hPa 0,0 l/m 0 min 0 min 0,0 UV-I 0 W/m 28,3 km/h (4 Bft)
03.10.2013 21:52 13,7 C 12,2 C 58 % 1015,6 hPa 0,0 l/m 0 min 0 min 0,0 UV-I 0 W/m 36,0 km/h (5 Bft)
03.10.2013 21:54 13,7 C 12,2 C 58 % 1015,6 hPa 0,0 l/m 0 min 0 min 0,0 UV-I 0 W/m 36,0 km/h (5 Bft)
03.10.2013 21:56 13,7 C 12,2 C 58 % 1015,6 hPa 0,0 l/m 0 min 0 min 0,0 UV-I 0 W/m 20,6 km/h (4 Bft)
03.10.2013 21:58 13,7 C 12,2 C 58 % 1015,7 hPa 0,0 l/m 0 min 0 min 0,0 UV-I 0 W/m 38,6 km/h (5 Bft)
03.10.2013 22:00 13,7 C 12,2 C 59 % 1015,7 hPa 0,0 l/m 0 min 0 min 0,0 UV-I 0 W/m 18,0 km/h (3 Bft)
03.10.2013 22:02 13,7 C 12,2 C 58 % 1015,6 hPa 0,0 l/m 0 min 0 min 0,0 UV-I 0 W/m 15,4 km/h (3 Bft)
03.10.2013 22:06 13,7 C 12,2 C 59 % 1015,6 hPa 0,0 l/m 0 min 0 min 0,0 UV-I 0 W/m 33,5 km/h (5 Bft)
03.10.2013 22:08 13,6 C 12,2 C 58 % 1015,6 hPa 0,0 l/m 0 min 0 min 0,0 UV-I 0 W/m 28,3 km/h (4 Bft)
03.10.2013 22:10 13,6 C 12,2 C 59 % 1015,6 hPa 0,0 l/m 0 min 0 min 0,0 UV-I 0 W/m 25,7 km/h (4 Bft)
03.10.2013 22:12 13,6 C 12,2 C 59 % 1015,7 hPa 0,0 l/m 0 min 0 min 0,0 UV-I 0 W/m 38,6 km/h (5 Bft)
03.10.2013 22:14 13,6 C 11,7 C 59 % 1015,6 hPa 0,0 l/m 0 min 0 min 0,0 UV-I 0 W/m 18,0 km/h (3 Bft)
03.10.2013 22:16 13,6 C 11,7 C 59 % 1015,7 hPa 0,0 l/m 0 min 0 min 0,0 UV-I 0 W/m 20,6 km/h (4 Bft)
03.10.2013 22:18 13,6 C 11,7 C 59 % 1015,6 hPa 0,0 l/m 0 min 0 min 0,0 UV-I 0 W/m 20,6 km/h (4 Bft)
03.10.2013 22:20 13,5 C 11,7 C 59 % 1015,6 hPa 0,0 l/m 0 min 0 min 0,0 UV-I 0 W/m 28,3 km/h (4 Bft)
03.10.2013 22:22 13,5 C 11,7 C 59 % 1015,7 hPa 0,0 l/m 0 min 0 min 0,0 UV-I 0 W/m 20,6 km/h (4 Bft)
03.10.2013 22:24 13,5 C 12,2 C 59 % 1015,7 hPa 0,0 l/m 0 min 0 min 0,0 UV-I 0 W/m 25,7 km/h (4 Bft)
03.10.2013 22:26 13,5 C 12,2 C 59 % 1015,7 hPa 0,0 l/m 0 min 0 min 0,0 UV-I 0 W/m 23,2 km/h (4 Bft)
03.10.2013 22:28 13,5 C 12,2 C 59 % 1015,7 hPa 0,0 l/m 0 min 0 min 0,0 UV-I 0 W/m 30,9 km/h (5 Bft)
03.10.2013 22:30 13,5 C 12,2 C 59 % 1015,6 hPa 0,0 l/m 0 min 0 min 0,0 UV-I 0 W/m 23,2 km/h (4 Bft)
03.10.2013 22:32 13,5 C 12,2 C 59 % 1015,6 hPa 0,0 l/m 0 min 0 min 0,0 UV-I 0 W/m 25,7 km/h (4 Bft)
03.10.2013 22:34 13,5 C 12,2 C 59 % 1015,6 hPa 0,0 l/m 0 min 0 min 0,0 UV-I 0 W/m 23,2 km/h (4 Bft)
03.10.2013 22:36 13,5 C 12,2 C 59 % 1015,6 hPa 0,0 l/m 0 min 0 min 0,0 UV-I 0 W/m 30,9 km/h (5 Bft)
03.10.2013 22:38 13,5 C 12,2 C 59 % 1015,6 hPa 0,0 l/m 0 min 0 min 0,0 UV-I 0 W/m 30,9 km/h (5 Bft)
03.10.2013 22:40 13,5 C 12,2 C 59 % 1015,7 hPa 0,0 l/m 0 min 0 min 0,0 UV-I 0 W/m 23,2 km/h (4 Bft)
03.10.2013 22:42 13,5 C 12,2 C 59 % 1015,8 hPa 0,0 l/m 0 min 0 min 0,0 UV-I 0 W/m 23,2 km/h (4 Bft)
03.10.2013 22:44 13,5 C 12,2 C 59 % 1015,7 hPa 0,0 l/m 0 min 0 min 0,0 UV-I 0 W/m 20,6 km/h (4 Bft)
03.10.2013 22:46 13,5 C 12,2 C 59 % 1015,8 hPa 0,0 l/m 0 min 0 min 0,0 UV-I 0 W/m 25,7 km/h (4 Bft)
03.10.2013 22:48 13,5 C 12,2 C 59 % 1015,8 hPa 0,0 l/m 0 min 0 min 0,0 UV-I 0 W/m 25,7 km/h (4 Bft)
03.10.2013 22:50 13,5 C 12,2 C 59 % 1015,8 hPa 0,0 l/m 0 min 0 min 0,0 UV-I 0 W/m 18,0 km/h (3 Bft)
03.10.2013 22:52 13,5 C 12,2 C 59 % 1015,9 hPa 0,0 l/m 0 min 0 min 0,0 UV-I 0 W/m 7,7 km/h (2 Bft)
03.10.2013 22:54 13,4 C 11,7 C 59 % 1015,8 hPa 0,0 l/m 0 min 0 min 0,0 UV-I 0 W/m 20,6 km/h (4 Bft)
03.10.2013 22:56 13,4 C 11,7 C 59 % 1015,8 hPa 0,0 l/m 0 min 0 min 0,0 UV-I 0 W/m 15,4 km/h (3 Bft)
03.10.2013 22:58 13,4 C 11,7 C 59 % 1015,9 hPa 0,0 l/m 0 min 0 min 0,0 UV-I 0 W/m 20,6 km/h (4 Bft)
03.10.2013 23:00 13,4 C 11,7 C 59 % 1015,9 hPa 0,0 l/m 0 min 0 min 0,0 UV-I 0 W/m 7,7 km/h (2 Bft)
03.10.2013 23:02 13,4 C 11,7 C 59 % 1016,0 hPa 0,0 l/m 0 min 0 min 0,0 UV-I 0 W/m 15,4 km/h (3 Bft)
03.10.2013 23:06 13,3 C 11,7 C 60 % 1016,1 hPa 0,0 l/m 0 min 0 min 0,0 UV-I 0 W/m 15,4 km/h (3 Bft)
03.10.2013 23:08 13,3 C 11,7 C 59 % 1016,0 hPa 0,0 l/m 0 min 0 min 0,0 UV-I 0 W/m 18,0 km/h (3 Bft)
03.10.2013 23:10 13,3 C 11,7 C 59 % 1015,9 hPa 0,0 l/m 0 min 0 min 0,0 UV-I 0 W/m 20,6 km/h (4 Bft)
03.10.2013 23:12 13,3 C 11,7 C 59 % 1015,9 hPa 0,0 l/m 0 min 0 min 0,0 UV-I 0 W/m 18,0 km/h (3 Bft)
03.10.2013 23:14 13,3 C 11,7 C 59 % 1015,9 hPa 0,0 l/m 0 min 0 min 0,0 UV-I 0 W/m 20,6 km/h (4 Bft)
03.10.2013 23:16 13,3 C 11,7 C 60 % 1015,9 hPa 0,0 l/m 0 min 0 min 0,0 UV-I 0 W/m 18,0 km/h (3 Bft)
03.10.2013 23:18 13,3 C 11,7 C 59 % 1015,9 hPa 0,0 l/m 0 min 0 min 0,0 UV-I 0 W/m 25,7 km/h (4 Bft)
03.10.2013 23:20 13,2 C 11,7 C 59 % 1015,9 hPa 0,0 l/m 0 min 0 min 0,0 UV-I 0 W/m 20,6 km/h (4 Bft)
03.10.2013 23:22 13,3 C 11,7 C 60 % 1016,0 hPa 0,0 l/m 0 min 0 min 0,0 UV-I 0 W/m 12,9 km/h (3 Bft)
03.10.2013 23:24 13,2 C 11,7 C 59 % 1016,0 hPa 0,0 l/m 0 min 0 min 0,0 UV-I 0 W/m 20,6 km/h (4 Bft)
03.10.2013 23:26 13,2 C 11,7 C 59 % 1015,9 hPa 0,0 l/m 0 min 0 min 0,0 UV-I 0 W/m 28,3 km/h (4 Bft)
03.10.2013 23:28 13,2 C 11,7 C 59 % 1015,9 hPa 0,0 l/m 0 min 0 min 0,0 UV-I 0 W/m 25,7 km/h (4 Bft)
03.10.2013 23:30 13,2 C 11,7 C 59 % 1015,9 hPa 0,0 l/m 0 min 0 min 0,0 UV-I 0 W/m 20,6 km/h (4 Bft)
03.10.2013 23:32 13,2 C 11,7 C 59 % 1015,9 hPa 0,0 l/m 0 min 0 min 0,0 UV-I 0 W/m 28,3 km/h (4 Bft)
03.10.2013 23:34 13,2 C 11,7 C 59 % 1015,8 hPa 0,0 l/m 0 min 0 min 0,0 UV-I 0 W/m 25,7 km/h (4 Bft)
03.10.2013 23:36 13,2 C 11,7 C 59 % 1015,8 hPa 0,0 l/m 0 min 0 min 0,0 UV-I 0 W/m 23,2 km/h (4 Bft)
03.10.2013 23:38 13,2 C 11,7 C 59 % 1015,8 hPa 0,0 l/m 0 min 0 min 0,0 UV-I 0 W/m 23,2 km/h (4 Bft)
03.10.2013 23:40 13,1 C 11,7 C 60 % 1015,7 hPa 0,0 l/m 0 min 0 min 0,0 UV-I 0 W/m 12,9 km/h (3 Bft)
03.10.2013 23:42 13,1 C 11,7 C 60 % 1015,8 hPa 0,0 l/m 0 min 0 min 0,0 UV-I 0 W/m 23,2 km/h (4 Bft)
03.10.2013 23:44 13,1 C 11,7 C 60 % 1015,7 hPa 0,0 l/m 0 min 0 min 0,0 UV-I 0 W/m 12,9 km/h (3 Bft)
03.10.2013 23:46 13,1 C 11,7 C 60 % 1015,6 hPa 0,0 l/m 0 min 0 min 0,0 UV-I 0 W/m 15,4 km/h (3 Bft)
03.10.2013 23:48 13,0 C 11,7 C 60 % 1015,8 hPa 0,0 l/m 0 min 0 min 0,0 UV-I 0 W/m 15,4 km/h (3 Bft)
03.10.2013 23:50 13,0 C 11,7 C 60 % 1015,7 hPa 0,0 l/m 0 min 0 min 0,0 UV-I 0 W/m 20,6 km/h (4 Bft)
03.10.2013 23:52 13,0 C 11,7 C 60 % 1015,8 hPa 0,0 l/m 0 min 0 min 0,0 UV-I 0 W/m 18,0 km/h (3 Bft)
03.10.2013 23:54 12,9 C 11,7 C 60 % 1015,7 hPa 0,0 l/m 0 min 0 min 0,0 UV-I 0 W/m 23,2 km/h (4 Bft)
03.10.2013 23:56 12,9 C 11,7 C 60 % 1015,6 hPa 0,0 l/m 0 min 0 min 0,0 UV-I 0 W/m 12,9 km/h (3 Bft)
03.10.2013 23:58 12,9 C 11,7 C 60 % 1015,6 hPa 0,0 l/m 0 min 0 min 0,0 UV-I 0 W/m 23,2 km/h (4 Bft)
_ Min-Zeit 07:50 07:00 13:16 18:20 - - - - - 01:38
Minimum _ 8,0 C 6,7 C 53 % 1014,7 hPa - - - - - 5,1 km/h (1 Bft)
_ Max-Zeit 16:30 15:30 05:42 00:52 00:00 07:54 00:00 13:38 14:08 13:48
Maximum _ 17,6 C 16,1 C 69 % 1018,8 hPa 0,0 l/m 2 min 0 min 2,0 UV-I 548 W/m 46,3 km/h
SO (6 Bft)
Durchschnitt _ 12,3 C 10,9 C 62 % 1016,8 hPa #0,0 l/m #8:00 h #0 min. 1,2 UV-I 265 W/m 24,1 km/h (4 Bft)
© 2013 W. Hausmann